Latitude: N 50° 09' 49" Longitude: W 05° 11' 53" Elevation: 168m ASL

There are 15 visitors online

Adverts

<- Previous Day | Today | Next Day ->

All Data for 15 December 2017

Time
A - D
Temp
A - D
Dew Point
A - D
Humidity
A - D
Pressure
A - D
Wind
A - D
Wind Dir Gust
A - D
Rain Rate
A - D
Rain Total
00:01 6.5 5.8 95 997.5 13.0 NW 18.3 0.0 0.0
00:02 6.5 5.8 95 997.4 10.7 W 18.3 0.0 0.0
00:04 6.5 5.8 95 997.5 10.7 W 18.3 0.0 0.0
00:06 6.5 5.8 95 997.5 10.7 W 18.3 0.0 0.0
00:07 6.5 5.8 95 997.4 15.2 SW 18.3 0.0 0.0
00:09 6.6 5.9 95 997.6 10.7 SW 16.8 0.0 0.0
00:10 6.6 5.9 95 997.4 9.2 NW 15.2 0.0 0.0
00:12 6.6 5.9 95 997.6 16.8 W 16.8 0.0 0.0
00:14 6.6 5.9 95 997.5 15.2 SW 16.8 0.0 0.0
00:15 6.6 5.9 95 997.3 12.1 W 19.0 0.0 0.0
00:17 6.6 5.9 95 997.7 11.4 SW 19.0 0.0 0.0
00:18 6.6 5.9 95 997.4 9.8 SW 19.0 0.0 0.0
00:20 6.6 5.9 95 997.5 13.0 W 19.0 0.0 0.0
00:21 6.6 5.9 95 997.5 13.6 W 19.0 0.0 0.0
00:22 6.6 5.9 95 997.5 15.9 NW 19.0 0.0 0.0
00:23 6.6 5.9 95 997.7 13.6 W 19.0 0.0 0.0
00:24 6.6 5.9 95 997.7 10.7 W 19.0 0.0 0.0
00:25 6.6 5.9 95 997.6 13.0 NW 15.9 0.0 0.0
00:26 6.6 5.9 95 997.6 12.1 NW 15.9 0.0 0.0
00:27 6.5 5.8 95 997.5 18.3 NW 18.3 0.0 0.0
00:28 6.5 5.8 95 997.5 18.3 N 18.3 0.0 0.0
00:29 6.5 5.8 95 997.5 19.0 W 19.0 0.0 0.0
00:30 6.5 5.8 95 997.6 20.6 W 20.6 0.0 0.0
00:32 6.5 5.8 95 997.5 15.2 W 20.6 0.0 0.0
00:33 6.4 5.7 95 997.5 8.3 W 20.6 0.0 0.0
00:34 6.4 5.7 95 997.5 13.0 W 20.6 0.0 0.0
00:35 6.4 5.7 95 997.6 12.1 SW 20.6 0.0 0.0
00:36 6.4 5.7 95 997.5 10.7 NW 20.6 0.0 0.0
00:37 6.4 5.7 95 997.5 11.4 SW 20.6 0.0 0.0
00:38 6.3 5.6 95 997.6 13.6 W 20.6 0.0 0.0
00:39 6.4 5.7 95 997.4 16.8 SW 20.6 0.0 0.0
00:41 6.3 5.6 95 997.5 13.0 SW 16.8 0.0 0.0
00:42 6.3 5.6 95 997.6 10.7 SW 16.8 0.0 0.0
00:43 6.4 5.7 95 997.6 10.7 W 16.8 0.0 0.0
00:44 6.3 5.6 95 997.5 15.2 W 16.8 0.0 0.0
00:45 6.3 5.6 95 997.6 14.5 SW 16.8 0.0 0.0
00:46 6.3 5.6 95 997.7 19.0 NW 19.0 0.0 0.0
00:47 6.4 5.7 95 997.8 14.5 SW 19.0 0.0 0.1
00:48 6.4 5.7 95 997.5 20.6 SW 20.6 2.3 0.2
00:49 6.4 5.7 95 997.4 14.5 SW 20.6 3.0 0.3
00:50 6.3 5.6 95 997.6 19.0 SW 20.6 3.0 0.3
00:51 6.3 5.6 95 997.5 15.9 SW 20.6 3.0 0.4
00:52 6.3 5.6 95 997.7 18.3 W 20.6 5.3 0.4
00:53 6.3 5.7 96 997.5 14.5 SW 20.6 3.0 0.5
00:54 6.3 5.7 96 997.4 15.2 W 20.6 3.0 0.5
00:55 6.3 5.7 96 997.3 12.1 SW 20.6 3.0 0.5
00:57 6.3 5.7 96 997.5 15.9 SW 20.6 0.8 0.5
00:58 6.3 5.7 96 997.6 12.1 SW 20.6 0.8 0.5
00:59 6.3 5.7 96 997.7 14.5 NW 19.0 0.0 0.5
01:00 6.2 5.6 96 997.6 9.8 W 19.0 0.0 0.5
01:01 6.2 5.6 96 997.5 9.2 SW 18.3 0.0 0.5
01:02 6.2 5.6 96 997.4 15.2 W 18.3 0.0 0.5
01:03 6.2 5.6 96 997.6 15.2 W 15.9 0.0 0.5
01:04 6.2 5.6 96 997.5 15.2 W 15.9 0.0 0.5
01:05 6.2 5.6 96 997.6 15.2 W 15.9 0.0 0.5
01:06 6.2 5.6 96 997.4 15.2 W 15.9 0.0 0.5
01:08 6.3 5.9 97 997.5 13.0 W 15.2 0.0 0.5
01:09 6.3 5.9 97 997.4 14.5 SW 15.2 0.0 0.5
01:10 6.3 5.9 97 997.4 15.2 W 15.2 0.0 0.5
01:11 6.3 5.9 97 997.4 14.5 W 15.2 0.0 0.5
01:12 6.3 5.9 97 997.3 17.4 SW 17.4 0.0 0.5
01:13 6.3 5.9 97 997.4 16.8 NW 17.4 0.0 0.5
01:14 6.3 5.9 97 997.3 16.8 SW 17.4 0.0 0.5
01:15 6.4 6.0 97 997.3 15.2 SW 17.4 0.0 0.5
01:16 6.4 6.0 97 997.3 16.8 W 17.4 0.0 0.5
01:17 6.4 6.0 97 997.4 19.0 SW 19.0 0.0 0.5
01:18 6.4 6.0 97 997.4 10.7 NW 19.0 0.0 0.5
01:19 6.4 6.0 97 997.3 15.9 SW 19.0 0.0 0.5
01:20 6.4 6.0 97 997.1 14.5 SW 19.0 0.0 0.5
01:21 6.4 6.0 97 997.2 14.5 W 19.0 0.0 0.5
01:22 6.4 6.0 97 997.3 8.3 W 19.0 0.0 0.5
01:23 6.4 5.8 96 997.4 12.1 W 19.0 0.0 0.5
01:24 6.4 6.0 97 997.3 9.8 W 19.0 0.0 0.5
01:25 6.4 5.8 96 997.2 15.9 SW 19.0 0.0 0.5
01:26 6.3 5.7 96 997.3 12.1 NW 19.0 0.0 0.5
01:27 6.4 6.0 97 997.4 13.0 W 15.9 0.0 0.5
01:28 6.3 5.7 96 997.3 12.1 W 15.9 0.0 0.5
01:29 6.3 5.7 96 997.4 15.2 W 15.9 0.0 0.5
01:30 6.3 5.7 96 997.4 15.9 SW 15.9 0.0 0.5
01:31 6.3 5.7 96 997.3 18.3 SW 18.3 0.0 0.5
01:33 6.4 6.0 97 997.5 14.5 SW 18.3 0.0 0.5
01:34 6.4 6.0 97 997.5 14.5 SW 18.3 0.0 0.5
01:35 6.4 6.0 97 997.6 13.6 W 18.3 0.8 0.6
01:36 6.5 6.1 97 997.6 19.0 SW 19.0 0.8 0.6
01:37 6.4 6.0 97 997.5 20.6 NW 20.6 0.8 0.6
01:38 6.4 6.0 97 997.7 17.4 W 20.6 1.5 0.6
01:39 6.4 6.0 97 997.5 16.8 NW 20.6 1.5 0.6
01:40 6.4 5.8 96 997.3 13.6 W 20.6 0.8 0.6
01:41 6.4 6.0 97 997.5 12.1 W 20.6 0.8 0.6
01:42 6.3 5.7 96 997.4 8.3 W 20.6 0.8 0.6
01:43 6.3 5.7 96 997.2 9.2 SW 20.6 0.0 0.6
01:44 6.3 5.7 96 997.4 11.4 N 20.6 0.0 0.6
01:45 6.2 5.6 96 997.3 12.1 W 20.6 0.0 0.6
01:46 6.2 5.6 96 997.5 13.6 W 20.6 0.0 0.6
01:47 6.2 5.6 96 997.5 8.3 W 17.4 0.0 0.6
01:48 6.1 5.5 96 997.5 11.4 W 16.8 0.0 0.6
01:49 6.1 5.5 96 997.4 10.7 W 13.6 0.0 0.6
01:50 6.1 5.5 96 997.5 14.5 W 14.5 0.0 0.6
01:51 6.1 5.5 96 997.4 9.2 SW 14.5 0.0 0.6
01:52 6.1 5.7 97 997.5 8.3 W 14.5 0.0 0.6
01:53 6.0 5.6 97 997.5 8.3 W 14.5 0.0 0.6
01:54 6.0 5.6 97 997.4 12.1 W 14.5 0.0 0.6
01:55 6.0 5.6 97 997.4 10.7 W 14.5 0.0 0.6
01:56 6.0 5.6 97 997.4 10.7 SW 14.5 0.0 0.6
01:57 6.0 5.6 97 997.3 15.9 SW 15.9 0.0 0.6
01:58 6.1 5.7 97 997.4 13.6 W 15.9 0.0 0.6
02:00 6.1 5.7 97 997.3 12.1 SW 15.9 0.0 0.6
02:01 6.1 5.7 97 997.2 17.4 SW 17.4 0.0 0.6
02:02 6.1 5.7 97 997.2 17.4 WNW 17.4 0.0 0.6
02:03 6.1 5.7 97 997.3 17.4 WNW 17.4 0.0 0.6
02:04 6.1 5.7 97 997.4 17.4 WNW 17.4 0.0 0.6
02:05 6.1 5.7 97 997.2 17.4 WNW 17.4 0.0 0.6
02:06 6.2 5.8 97 997.3 12.1 NW 17.4 0.0 0.6
02:08 6.3 6.0 98 997.2 13.0 SW 17.4 0.0 0.6
02:09 6.3 6.0 98 997.3 13.0 SW 17.4 0.0 0.6
02:10 6.3 6.0 98 997.3 9.2 SW 17.4 0.0 0.6
02:11 6.3 6.0 98 997.5 15.2 NW 17.4 0.0 0.6
02:12 6.4 6.1 98 997.5 13.0 WNW 17.4 0.0 0.6
02:13 6.4 6.1 98 997.3 13.0 SW 17.4 0.0 0.6
02:14 6.4 6.1 98 997.4 12.1 NW 17.4 0.0 0.6
02:15 6.4 6.1 98 997.4 10.7 NW 17.4 0.0 0.6
02:16 6.4 6.1 98 997.5 9.2 W 15.2 0.0 0.6
02:17 6.4 6.1 98 997.6 9.2 W 15.2 0.0 0.6
02:18 6.4 6.1 98 997.3 9.2 NW 15.2 0.0 0.6
02:19 6.4 6.1 98 997.5 8.3 N 15.2 0.0 0.6
02:20 6.5 6.2 98 997.5 11.4 W 15.9 0.0 0.6
02:21 6.5 6.2 98 997.6 11.4 W 15.9 0.0 0.6
02:22 6.5 6.2 98 997.5 11.4 SW 15.9 0.0 0.6
02:23 6.5 6.2 98 997.5 9.8 W 15.9 0.0 0.6
02:24 6.5 6.2 98 997.6 10.7 SW 15.9 0.0 0.6
02:25 6.5 6.2 98 997.7 15.2 SW 15.9 0.0 0.6
02:26 6.6 6.3 98 997.6 16.8 W 16.8 0.0 0.6
02:27 6.6 6.3 98 997.7 9.2 NW 16.8 0.0 0.6
02:29 6.6 6.3 98 997.8 11.4 W 16.8 0.0 0.6
02:30 6.6 6.3 98 997.8 11.4 N 16.8 0.0 0.6
02:31 6.6 6.3 98 997.7 11.4 W 16.8 0.0 0.6
02:32 6.7 6.4 98 997.7 11.4 SW 19.0 0.0 0.6
02:34 6.6 6.3 98 997.7 13.6 NW 19.0 0.0 0.6
02:35 6.6 6.3 98 997.6 8.3 SW 19.0 0.0 0.6
02:36 6.6 6.3 98 997.6 9.8 SW 19.0 0.0 0.6
02:37 6.6 6.3 98 997.7 12.1 SW 19.0 0.0 0.6
02:38 6.7 6.4 98 997.9 13.0 W 19.0 0.0 0.6
02:39 6.7 6.4 98 997.8 9.8 W 19.0 0.0 0.6
02:40 6.7 6.4 98 997.9 9.2 E 19.0 0.0 0.6
02:41 6.7 6.4 98 997.8 12.1 W 19.0 0.0 0.6
02:42 6.7 6.4 98 997.9 10.7 NW 19.0 0.0 0.6
02:43 6.7 6.4 98 997.8 13.0 NW 13.6 0.0 0.6
02:44 6.7 6.4 98 997.9 9.2 NW 13.0 0.0 0.6
02:45 6.7 6.4 98 997.8 9.8 W 13.0 0.0 0.6
02:46 6.7 6.4 98 998.0 14.5 W 14.5 0.0 0.6
02:47 6.8 6.5 98 997.9 17.4 W 17.4 0.0 0.6
02:48 6.8 6.5 98 998.0 15.9 W 17.4 0.0 0.6
02:49 6.8 6.5 98 997.9 15.2 NW 17.4 0.0 0.6
02:50 6.8 6.5 98 997.9 15.9 W 17.4 0.0 0.6
02:51 6.8 6.5 98 998.1 15.2 NW 17.4 0.0 0.6
02:52 6.9 6.6 98 998.0 19.7 SW 19.7 0.0 0.6
02:53 6.9 6.6 98 998.1 18.3 W 19.7 0.0 0.6
02:54 6.9 6.6 98 998.1 18.3 W 19.7 0.0 0.6
02:55 6.9 6.6 98 998.1 19.7 WNW 19.7 0.0 0.6
02:56 6.9 6.6 98 998.1 20.6 NW 20.6 0.0 0.6
02:57 6.9 6.6 98 998.0 19.7 W 20.6 0.0 0.6
02:59 6.9 6.6 98 998.2 10.7 W 20.6 0.0 0.6
03:00 7.0 6.7 98 998.1 11.4 NW 20.6 0.0 0.6
03:01 7.0 6.7 98 998.1 9.8 W 20.6 0.0 0.6
03:02 7.0 6.7 98 998.2 15.2 W 20.6 0.0 0.6
03:03 7.0 6.7 98 998.2 15.2 W 20.6 0.0 0.6
03:04 7.0 6.7 98 998.2 15.2 W 20.6 0.0 0.6
03:05 7.0 6.7 98 998.2 15.2 W 20.6 0.0 0.6
03:07 7.0 6.6 97 998.2 14.5 NW 20.6 0.0 0.6
03:08 7.0 6.6 97 998.1 22.8 NW 22.8 0.0 0.6
03:10 7.1 6.7 97 998.2 22.1 W 22.8 0.0 0.6
03:11 7.1 6.7 97 998.3 17.4 NW 22.8 0.0 0.6
03:12 7.0 6.6 97 998.3 12.1 NW 22.8 0.0 0.6
03:13 7.0 6.6 97 998.3 15.2 W 22.8 0.0 0.6
03:14 7.0 6.6 97 998.4 13.6 NW 22.8 0.0 0.6
03:15 7.0 6.6 97 998.4 19.0 W 22.8 0.0 0.6
03:16 7.0 6.6 97 998.5 15.2 W 22.8 0.0 0.6
03:17 7.0 6.6 97 998.3 17.4 W 22.8 0.0 0.6
03:18 7.0 6.6 97 998.5 15.9 SW 22.8 0.0 0.6
03:19 7.0 6.6 97 998.6 22.8 W 22.8 0.0 0.6
03:20 7.0 6.6 97 998.4 12.1 W 22.8 0.0 0.6
03:21 7.0 6.6 97 998.4 20.6 NW 22.8 0.0 0.6
03:23 7.0 6.6 97 998.4 19.0 S 23.5 0.0 0.6
03:24 7.0 6.6 97 998.6 15.9 NW 23.5 0.0 0.6
03:25 7.0 6.6 97 998.6 20.6 W 23.5 0.0 0.6
03:27 7.0 6.4 96 998.4 16.8 W 23.5 0.0 0.6
03:28 7.0 6.4 96 998.5 14.5 W 23.5 0.0 0.6
03:29 7.1 6.5 96 998.6 13.6 W 23.5 0.0 0.6
03:30 7.0 6.4 96 998.6 15.9 W 23.5 0.0 0.6
03:31 7.0 6.4 96 998.5 15.2 N 23.5 0.0 0.6
03:32 7.0 6.4 96 998.4 18.3 NW 23.5 0.0 0.6
03:33 7.0 6.4 96 998.6 21.3 N 21.3 0.0 0.6
03:34 7.0 6.4 96 998.5 17.4 NW 21.3 0.0 0.6
03:35 7.1 6.5 96 998.5 14.5 W 21.3 0.0 0.6
03:36 7.1 6.5 96 998.5 14.5 NW 21.3 0.0 0.6
03:37 7.1 6.5 96 998.7 10.7 W 21.3 0.0 0.6
03:38 7.1 6.5 96 998.6 14.5 W 21.3 0.0 0.6
03:39 7.1 6.5 96 998.3 13.0 W 21.3 0.0 0.6
03:40 7.1 6.5 96 998.7 14.5 W 21.3 0.0 0.6
03:41 7.1 6.5 96 998.5 15.9 W 21.3 0.0 0.6
03:42 7.1 6.5 96 998.5 16.8 W 21.3 0.0 0.6
03:43 7.1 6.5 96 998.5 13.6 W 17.4 0.0 0.6
03:45 7.1 6.5 96 998.5 13.0 W 16.8 0.0 0.6
03:46 7.1 6.5 96 998.5 14.5 S 16.8 0.0 0.6
03:47 7.1 6.5 96 998.6 13.0 NW 16.8 0.0 0.6
03:48 7.1 6.5 96 998.6 12.1 NW 16.8 0.0 0.6
03:49 7.1 6.5 96 998.6 15.2 W 16.8 0.0 0.6
03:50 7.1 6.5 96 998.7 13.0 NW 16.8 0.0 0.6
03:51 7.1 6.5 96 998.7 13.6 W 16.8 0.0 0.6
03:52 7.1 6.5 96 998.7 11.4 W 16.8 0.0 0.6
03:53 7.1 6.5 96 998.7 14.5 W 16.8 0.0 0.6
03:54 7.1 6.5 96 998.7 12.1 W 16.8 0.0 0.6
03:55 7.1 6.5 96 998.8 15.2 W 16.8 0.0 0.6
03:56 7.1 6.5 96 998.8 18.3 W 18.3 0.0 0.6
03:57 7.1 6.5 96 998.7 19.7 W 19.7 0.0 0.6
03:58 7.1 6.5 96 998.6 14.5 W 19.7 0.0 0.6
03:59 7.2 6.6 96 998.7 14.5 SW 19.7 0.0 0.6
04:00 7.2 6.6 96 998.7 18.3 W 24.4 0.0 0.6
04:01 7.2 6.6 96 998.8 12.1 W 24.4 0.0 0.6
04:03 7.2 6.6 96 998.7 12.1 W 24.4 0.0 0.6
04:04 7.2 6.6 96 998.7 12.1 W 24.4 0.0 0.6
04:05 7.2 6.6 96 998.8 12.1 W 24.4 0.0 0.6
04:06 7.2 6.6 96 998.6 12.1 W 24.4 0.0 0.6
04:08 7.3 6.7 96 998.6 14.5 W 24.4 0.0 0.6
04:09 7.3 6.7 96 998.6 17.4 SW 24.4 0.0 0.6
04:10 7.3 6.7 96 998.7 16.8 W 18.3 0.0 0.6
04:11 7.3 6.7 96 998.5 17.4 W 17.4 0.0 0.6
04:12 7.3 6.7 96 998.6 15.9 W 17.4 0.0 0.6
04:13 7.3 6.7 96 998.6 17.4 NW 17.4 0.0 0.6
04:14 7.3 6.7 96 998.7 17.4 W 17.4 0.0 0.6
04:16 7.3 6.7 96 998.7 16.8 W 17.4 0.0 0.6
04:17 7.3 6.7 96 998.8 15.2 NW 17.4 0.0 0.6
04:18 7.3 6.7 96 998.8 21.3 NW 21.3 0.0 0.6
04:19 7.3 6.7 96 998.8 21.3 NW 21.3 0.0 0.6
04:20 7.3 6.7 96 998.8 19.0 N 21.3 0.0 0.6
04:21 7.3 6.7 96 998.6 23.5 W 23.5 0.0 0.6
04:22 7.3 6.7 96 998.8 21.3 NW 23.5 0.0 0.6
04:23 7.4 6.8 96 998.6 17.4 NW 23.5 0.0 0.6
04:24 7.4 6.8 96 998.7 19.0 W 23.5 0.0 0.6
04:25 7.4 6.8 96 998.8 15.9 SW 23.5 0.0 0.6
04:26 7.4 6.8 96 998.8 13.0 W 23.5 0.0 0.6
04:27 7.4 6.8 96 999.0 22.8 NW 23.5 0.0 0.6
04:28 7.4 6.8 96 998.8 16.8 NW 23.5 0.0 0.6
04:29 7.4 6.7 95 999.0 14.5 W 23.5 0.0 0.6
04:30 7.4 6.7 95 998.9 13.6 NW 23.5 0.0 0.6
04:31 7.4 6.7 95 998.7 19.7 NW 22.8 0.0 0.6
04:32 7.4 6.7 95 999.0 19.7 NW 22.8 0.0 0.6
04:33 7.4 6.7 95 998.9 20.6 NW 22.8 0.0 0.6
04:35 7.4 6.7 95 998.9 22.1 NW 25.1 0.0 0.6
04:36 7.4 6.7 95 999.2 18.3 NW 25.1 0.0 0.6
04:37 7.4 6.7 95 999.1 19.0 W 25.1 0.0 0.6
04:38 7.4 6.7 95 998.9 19.7 W 25.1 0.0 0.6
04:39 7.4 6.7 95 999.2 16.8 NW 25.1 0.0 0.6
04:40 7.4 6.7 95 999.2 15.2 W 25.1 0.0 0.6
04:41 7.4 6.7 95 999.2 15.9 N 25.1 0.0 0.6
04:42 7.4 6.7 95 999.2 15.2 NW 25.1 0.0 0.6
04:43 7.4 6.5 94 999.2 15.9 W 25.1 0.0 0.6
04:44 7.4 6.5 94 999.3 21.3 S 25.1 0.0 0.6
04:45 7.4 6.5 94 999.2 20.6 SW 21.3 0.0 0.6
04:46 7.4 6.5 94 999.2 15.2 W 21.3 0.0 0.6
04:47 7.4 6.5 94 999.1 19.0 SW 21.3 0.0 0.6
04:48 7.4 6.5 94 999.1 19.7 NW 21.3 0.0 0.6
04:49 7.4 6.5 94 999.2 15.9 W 21.3 0.0 0.6
04:50 7.4 6.5 94 999.0 21.3 W 21.3 0.0 0.6
04:51 7.4 6.5 94 999.2 19.7 W 21.3 0.0 0.6
04:53 7.4 6.5 94 999.0 19.7 NW 22.8 0.0 0.6
04:54 7.4 6.5 94 999.2 19.7 W 22.8 0.0 0.6
04:55 7.4 6.5 94 999.1 21.3 W 22.8 0.0 0.6
04:56 7.4 6.5 94 998.9 20.6 NW 22.8 0.0 0.6
04:57 7.4 6.5 94 999.1 21.3 W 22.8 0.0 0.6
04:58 7.4 6.5 94 999.3 26.6 NW 26.6 0.0 0.6
04:59 7.4 6.5 94 999.2 19.7 NW 26.6 0.0 0.6
05:00 7.5 6.6 94 999.3 21.3 N 26.6 0.0 0.6
05:01 7.5 6.6 94 999.3 22.8 W 26.6 0.0 0.6
05:02 7.5 6.6 94 999.1 19.7 NE 26.6 0.0 0.6
05:03 7.5 6.6 94 999.5 19.7 W 26.6 0.0 0.6
05:04 7.5 6.6 94 999.3 19.0 NW 26.6 0.0 0.6
05:05 7.5 6.6 94 999.4 25.9 NW 26.6 0.0 0.6
05:07 7.5 6.6 94 999.5 19.0 W 26.6 0.0 0.6
05:08 7.5 6.4 93 999.4 27.3 NW 27.3 0.0 0.6
05:10 7.5 6.4 93 999.5 19.0 SW 27.3 0.0 0.6
05:11 7.5 6.4 93 999.3 19.0 NW 27.3 0.0 0.6
05:12 7.5 6.4 93 999.4 15.2 NW 27.3 0.0 0.6
05:13 7.5 6.4 93 999.5 22.1 W 27.3 0.0 0.6
05:14 7.5 6.4 93 999.3 19.0 NW 27.3 0.0 0.6
05:15 7.5 6.4 93 999.4 13.6 N 27.3 0.0 0.6
05:16 7.5 6.4 93 999.2 22.8 SW 27.3 0.0 0.6
05:17 7.5 6.4 93 999.3 24.4 NW 27.3 0.0 0.6
05:18 7.5 6.4 93 999.5 22.1 W 27.3 0.0 0.6
05:19 7.5 6.4 93 999.3 24.4 W 24.4 0.0 0.6
05:20 7.5 6.4 93 999.4 18.3 NW 24.4 0.0 0.6
05:21 7.5 6.4 93 999.5 16.8 W 24.4 0.0 0.6
05:22 7.5 6.4 93 999.4 15.9 W 24.4 0.0 0.6
05:24 7.5 6.4 93 999.4 15.2 NW 24.4 0.0 0.6
05:25 7.5 6.4 93 999.4 23.5 W 24.4 0.0 0.6
05:26 7.5 6.4 93 999.5 10.7 W 24.4 0.0 0.6
05:27 7.5 6.4 93 999.4 17.4 NW 24.4 0.0 0.6
05:28 7.5 6.4 93 999.4 20.6 W 24.4 0.0 0.6
05:29 7.6 6.5 93 999.4 17.4 W 24.4 0.0 0.6
05:30 7.5 6.4 93 999.4 15.9 W 23.5 0.0 0.6
05:31 7.5 6.4 93 999.4 19.0 SW 23.5 0.0 0.6
05:32 7.5 6.4 93 999.3 19.0 W 23.5 0.0 0.6
05:33 7.5 6.4 93 999.6 22.8 NW 23.5 0.0 0.6
05:34 7.6 6.5 93 999.3 20.6 NW 23.5 0.0 0.6
05:35 7.6 6.5 93 999.6 15.9 W 22.8 0.0 0.6
05:36 7.6 6.5 93 999.4 17.4 W 22.8 0.0 0.6
05:37 7.6 6.5 93 999.6 14.5 W 22.8 0.0 0.6
05:38 7.6 6.5 93 999.6 11.4 NW 22.8 0.0 0.7
05:39 7.5 6.4 93 999.5 19.7 W 22.8 0.8 0.7
05:40 7.5 6.6 94 999.6 13.0 W 22.8 0.8 0.7
05:41 7.5 6.6 94 999.3 21.3 W 22.8 0.8 0.7
05:42 7.5 6.6 94 999.4 16.8 NW 22.8 0.8 0.7
05:44 7.5 6.6 94 999.6 19.0 W 21.3 0.0 0.7
05:45 7.5 6.6 94 999.6 19.0 W 21.3 0.0 0.7
05:46 7.5 6.6 94 999.5 13.6 W 21.3 0.0 0.7
05:47 7.5 6.6 94 999.6 21.3 NW 21.3 0.0 0.7
05:48 7.5 6.6 94 999.7 19.0 SW 22.1 0.0 0.7
05:49 7.4 6.5 94 999.7 15.2 NW 22.1 0.0 0.7
05:50 7.5 6.6 94 999.6 19.7 NW 22.1 0.0 0.7
05:51 7.5 6.6 94 999.5 21.3 NW 22.1 0.0 0.7
05:53 7.4 6.5 94 999.6 20.6 W 22.1 0.0 0.7
05:54 7.4 6.5 94 999.8 17.4 NW 22.1 0.0 0.7
05:55 7.4 6.5 94 999.7 20.6 NW 22.1 0.0 0.7
05:57 7.4 6.5 94 999.9 25.9 NW 25.9 0.0 0.7
05:58 7.4 6.5 94 999.7 22.8 NW 25.9 0.0 0.7
05:59 7.4 6.5 94 999.8 20.6 SW 25.9 0.0 0.7
06:00 7.4 6.5 94 999.8 21.3 W 25.9 0.0 0.7
06:01 7.4 6.5 94 999.8 17.4 W 25.9 0.0 0.7
06:03 7.4 6.5 94 999.8 25.1 W 25.9 0.0 0.7
06:04 7.4 6.3 93 999.9 22.1 W 25.9 0.0 0.7
06:05 7.4 6.3 93 1000.0 16.8 NW 25.9 0.0 0.7
06:06 7.3 6.2 93 1000.0 14.5 W 25.9 0.0 0.7
06:08 7.3 6.2 93 999.9 18.3 W 25.1 0.0 0.7
06:09 7.3 6.2 93 999.9 22.1 W 25.1 0.0 0.7
06:11 7.3 6.2 93 999.9 22.8 W 25.1 0.0 0.7
06:12 7.3 6.2 93 1000.0 16.8 W 25.1 0.0 0.7
06:13 7.3 6.2 93 1000.1 16.8 SW 22.8 0.0 0.7
06:14 7.3 6.2 93 1000.2 18.3 W 22.8 0.0 0.7
06:15 7.3 6.2 93 1000.1 16.8 NW 22.8 0.0 0.7
06:17 7.3 6.2 93 1000.1 19.0 W 22.8 0.0 0.7
06:18 7.4 6.3 93 1000.1 15.9 W 22.8 0.0 0.7
06:19 7.4 6.3 93 1000.2 19.7 W 22.8 0.0 0.7
06:20 7.4 6.3 93 1000.2 16.8 NW 22.8 0.0 0.7
06:21 7.4 6.3 93 1000.2 15.9 NW 22.8 0.0 0.7
06:22 7.4 6.3 93 1000.2 22.8 SW 22.8 0.0 0.7
06:23 7.4 6.3 93 1000.2 15.9 W 22.8 0.0 0.7
06:24 7.4 6.3 93 1000.2 22.8 W 22.8 0.0 0.7
06:25 7.4 6.3 93 1000.1 21.3 NW 22.8 0.0 0.7
06:26 7.4 6.3 93 1000.2 15.2 W 22.8 0.0 0.7
06:27 7.4 6.3 93 1000.3 16.8 NW 22.8 0.0 0.7
06:28 7.4 6.3 93 1000.4 15.9 W 22.8 0.0 0.7
06:29 7.4 6.3 93 1000.3 15.9 NW 22.8 0.0 0.8
06:30 7.4 6.3 93 1000.3 16.8 W 22.8 0.8 0.8
06:31 7.4 6.3 93 1000.3 10.7 E 22.8 0.8 0.8
06:32 7.3 6.2 93 1000.3 15.9 W 22.8 0.8 0.8
06:34 7.3 6.2 93 1000.4 17.4 NW 22.8 0.8 0.8
06:35 7.3 6.2 93 1000.5 15.2 NW 20.6 0.0 0.8
06:36 7.3 6.2 93 1000.4 14.5 WNW 19.7 0.0 0.8
06:37 7.3 6.2 93 1000.4 19.0 NW 19.7 0.0 0.8
06:38 7.3 6.2 93 1000.7 22.1 W 22.1 0.0 0.8
06:39 7.3 6.2 93 1000.3 15.9 WNW 22.1 0.0 0.8
06:40 7.3 6.2 93 1000.5 14.5 N 22.1 0.0 0.8
06:41 7.3 6.2 93 1000.3 16.8 W 22.1 0.0 0.8
06:42 7.3 6.2 93 1000.4 16.8 NW 22.1 0.0 0.8
06:43 7.3 6.2 93 1000.5 15.2 W 22.1 0.0 0.8
06:44 7.3 6.2 93 1000.4 15.9 NW 22.1 0.0 0.8
06:45 7.2 6.1 93 1000.5 20.6 W 22.1 0.0 0.8
06:46 7.3 6.2 93 1000.6 16.8 W 22.1 0.0 0.8
06:47 7.3 6.2 93 1000.6 16.8 W 22.1 0.0 0.8
06:48 7.3 6.2 93 1000.7 19.7 NW 20.6 0.0 0.8
06:50 7.3 6.2 93 1000.7 15.9 NW 20.6 0.0 0.8
06:51 7.3 6.4 94 1000.6 19.0 W 20.6 0.0 0.8
06:52 7.3 6.4 94 1000.5 13.6 W 20.6 0.0 0.8
06:53 7.3 6.4 94 1000.4 16.8 NW 20.6 0.0 0.8
06:54 7.3 6.4 94 1000.6 17.4 NW 20.6 0.0 0.8
06:55 7.3 6.2 93 1000.5 19.0 W 20.6 0.0 0.8
06:56 7.3 6.2 93 1000.7 19.0 W 19.7 0.0 0.8
06:57 7.3 6.2 93 1000.7 19.0 NW 19.7 0.0 0.8
06:58 7.3 6.2 93 1000.8 19.0 NW 19.0 0.0 0.8
06:59 7.3 6.2 93 1000.7 12.1 W 22.1 0.0 0.8
07:00 7.3 6.2 93 1000.8 17.4 SW 22.1 0.0 0.8
07:01 7.3 6.2 93 1000.8 9.8 W 22.1 0.0 0.8
07:03 7.3 6.2 93 1000.9 15.2 N 22.1 0.0 0.8
07:04 7.3 6.2 93 1000.9 15.2 NW 22.1 0.0 0.8
07:05 7.3 6.2 93 1000.9 13.0 N 22.1 0.0 0.8
07:06 7.3 6.2 93 1001.1 19.0 W 22.1 0.0 0.8
07:07 7.3 6.1 92 1001.0 20.6 NW 22.1 0.0 0.8
07:09 7.2 6.0 92 1000.9 15.2 W 20.6 0.0 0.8
07:11 7.2 6.0 92 1000.8 11.4 NW 20.6 0.0 0.8
07:12 7.1 5.9 92 1000.9 14.5 W 20.6 0.0 0.8
07:13 7.1 5.9 92 1001.1 17.4 NW 20.6 0.0 0.8
07:14 7.1 5.9 92 1001.0 14.5 NW 20.6 0.0 0.8
07:15 7.1 5.9 92 1001.3 14.5 NW 20.6 0.0 0.8
07:17 7.1 6.0 93 1001.2 14.5 W 20.6 0.0 0.8
07:18 7.1 6.0 93 1001.2 11.4 W 17.4 0.0 0.8
07:19 7.1 6.0 93 1001.3 10.7 NW 17.4 0.0 0.8
07:20 7.1 6.0 93 1001.2 11.4 N 17.4 0.0 0.8
07:21 7.1 6.0 93 1001.3 14.5 E 17.4 0.0 0.8
07:22 7.0 5.9 93 1001.2 14.5 W 17.4 0.0 0.8
07:23 7.0 5.9 93 1001.3 13.0 W 17.4 0.0 0.8
07:24 7.0 5.9 93 1001.3 13.6 NW 17.4 0.0 0.8
07:25 7.0 5.9 93 1001.3 13.0 W 15.9 0.0 0.8
07:26 7.0 5.9 93 1001.4 12.1 SW 15.9 0.0 0.8
07:27 7.0 5.9 93 1001.4 17.4 W 17.4 0.0 0.8
07:28 7.0 5.9 93 1001.5 15.9 NW 17.4 0.0 0.8
07:29 7.0 5.9 93 1001.4 19.0 N 19.0 0.0 0.8
07:30 7.0 5.9 93 1001.5 13.0 WNW 19.0 0.0 0.8
07:32 7.0 5.9 93 1001.5 9.8 W 19.0 0.0 0.8
07:33 7.0 5.9 93 1001.5 15.9 NW 19.0 0.8 0.8
07:34 7.0 5.9 93 1001.5 10.7 N 19.7 0.8 0.8
07:35 7.0 5.9 93 1001.6 10.7 W 19.7 0.8 0.8
07:36 7.0 5.9 93 1001.5 15.2 NW 19.7 0.8 0.8
07:37 7.0 5.9 93 1001.4 15.9 N 19.7 0.8 0.8
07:38 6.9 5.8 93 1001.4 16.8 NW 19.7 0.0 0.8
07:39 6.9 5.8 93 1001.5 21.3 W 21.3 0.0 0.8
07:40 6.9 5.8 93 1001.5 13.6 NW 21.3 0.0 0.8
07:41 6.9 5.8 93 1001.6 15.2 W 21.3 0.0 0.8
07:42 6.9 5.8 93 1001.6 9.8 WNW 21.3 0.0 0.8
07:43 6.8 5.7 93 1001.5 13.6 NW 21.3 0.0 0.8
07:44 6.9 5.8 93 1001.5 11.4 NE 21.3 0.0 0.8
07:45 6.9 5.8 93 1001.5 18.3 W 21.3 0.0 0.8
07:46 6.9 5.8 93 1001.7 17.4 NW 21.3 0.0 0.8
07:47 6.8 5.7 93 1001.6 11.4 W 21.3 0.0 0.8
07:48 6.8 5.7 93 1001.7 18.3 W 21.3 0.0 0.8
07:49 6.8 5.7 93 1001.7 15.9 NW 21.3 0.0 0.8
07:50 6.9 5.8 93 1001.7 19.7 W 19.7 0.0 0.8
07:51 6.9 5.8 93 1001.7 13.0 W 19.7 0.0 0.8
07:52 6.9 5.8 93 1001.6 16.8 NW 19.7 0.0 0.8
07:53 6.9 5.8 93 1001.8 18.3 NW 19.7 0.0 0.8
07:54 6.9 5.8 93 1001.7 13.0 W 19.7 0.0 0.8
07:55 6.9 5.8 93 1001.7 15.9 W 19.7 0.0 0.8
07:56 6.9 5.8 93 1001.7 18.3 W 19.7 0.0 0.8
07:57 7.0 5.9 93 1001.8 15.2 N 19.7 0.0 0.8
07:58 7.0 5.9 93 1001.9 13.6 W 19.7 0.0 0.8
07:59 7.0 5.9 93 1001.7 19.0 NW 19.7 0.0 0.8
08:00 7.0 5.8 92 1001.7 13.0 N 19.0 0.0 0.8
08:01 7.0 5.8 92 1002.1 11.4 W 19.0 0.0 0.8
08:02 7.0 5.8 92 1002.0 11.4 W 19.0 0.0 0.8
08:03 7.0 5.8 92 1002.1 11.4 W 19.0 0.0 0.8
08:04 7.0 5.8 92 1001.9 11.4 W 19.0 0.0 0.8
08:05 7.0 5.8 92 1002.0 11.4 W 19.0 0.0 0.8
08:07 7.0 5.9 93 1002.1 11.4 NW 19.0 0.0 0.8
08:08 7.0 5.8 92 1002.0 9.8 N 19.0 0.0 0.8
08:10 7.0 5.9 93 1002.3 9.2 NW 19.0 0.0 0.8
08:11 7.0 5.8 92 1002.2 9.2 NW 13.0 0.0 0.8
08:12 7.0 5.8 92 1002.2 12.1 NW 14.5 0.0 0.8
08:13 7.0 5.9 93 1002.1 15.2 NW 15.2 0.0 0.8
08:14 7.0 5.8 92 1002.1 16.8 E 16.8 0.0 0.8
08:15 7.0 5.8 92 1002.4 15.2 SW 16.8 0.0 0.8
08:17 7.0 5.9 93 1002.1 14.5 W 16.8 0.0 0.8
08:18 7.0 5.8 92 1002.4 17.4 NW 17.4 0.0 0.8
08:19 7.0 5.8 92 1002.3 9.8 N 17.4 0.0 0.8
08:20 7.0 5.8 92 1002.5 8.3 N 17.4 0.0 0.8
08:21 7.0 5.8 92 1002.2 19.7 W 19.7 0.0 0.8
08:22 7.0 5.8 92 1002.4 13.6 N 19.7 0.0 0.8
08:23 7.0 5.8 92 1002.5 12.1 W 19.7 0.0 0.8
08:24 7.0 5.8 92 1002.4 11.4 NW 19.7 0.0 0.8
08:25 7.0 5.8 92 1002.4 11.4 W 19.7 0.0 0.8
08:26 7.0 5.8 92 1002.5 8.3 SW 19.7 0.0 0.8
08:27 7.0 5.8 92 1002.4 9.8 W 19.7 0.0 0.8
08:28 7.0 5.8 92 1002.4 16.8 NW 19.7 0.0 0.8
08:29 7.0 5.8 92 1002.5 13.6 N 19.7 0.0 0.8
08:30 7.0 5.8 92 1002.7 11.4 NW 19.7 0.0 0.8
08:31 7.0 5.8 92 1002.6 14.5 NW 17.4 0.0 0.8
08:32 7.0 5.8 92 1002.6 16.8 N 16.8 0.0 0.8
08:33 7.0 5.8 92 1002.7 12.1 NE 16.8 0.0 0.8
08:34 7.0 5.8 92 1002.7 16.8 W 16.8 0.0 0.8
08:35 7.0 5.8 92 1002.6 13.0 NW 16.8 0.0 0.8
08:36 7.1 5.9 92 1002.7 13.0 NW 16.8 0.0 0.8
08:37 7.1 5.7 91 1002.6 13.0 N 16.8 0.0 0.8
08:38 7.1 5.9 92 1002.4 20.6 NW 20.6 0.0 0.8
08:39 7.1 5.9 92 1002.6 17.4 NW 20.6 0.0 0.8
08:40 7.1 5.9 92 1002.7 10.7 SW 20.6 0.0 0.8
08:41 7.1 5.9 92 1002.6 14.5 N 20.6 0.0 0.8
08:42 7.1 5.9 92 1002.6 9.8 NW 20.6 0.0 0.8
08:43 7.1 5.9 92 1002.7 19.7 W 20.6 0.0 0.8
08:44 7.1 5.9 92 1002.8 10.7 NW 20.6 0.0 0.8
08:45 7.1 5.9 92 1002.8 9.8 NW 20.6 0.0 0.8
08:46 7.1 5.9 92 1002.9 12.1 NW 20.6 0.0 0.8
08:47 7.1 5.9 92 1002.8 13.0 NW 20.6 0.0 0.8
08:48 7.1 5.9 92 1003.0 12.1 NW 19.7 0.0 0.8
08:49 7.1 5.9 92 1003.1 11.4 W 19.7 0.0 0.8
08:50 7.1 5.9 92 1003.1 6.0 N 19.7 0.0 0.8
08:52 7.2 5.8 91 1003.2 14.5 W 19.7 0.0 0.8
08:53 7.1 5.7 91 1003.0 12.1 W 19.7 0.0 0.8
08:54 7.1 5.7 91 1003.2 17.4 N 17.4 0.0 0.8
08:55 7.1 5.7 91 1003.3 10.7 W 17.4 0.0 0.8
08:56 7.1 5.7 91 1003.2 10.7 NE 17.4 0.0 0.8
08:57 7.1 5.7 91 1003.1 15.2 NW 17.4 0.0 0.8
08:58 7.1 5.9 92 1003.3 9.8 N 17.4 0.0 0.8
08:59 7.1 5.7 91 1003.3 15.2 N 17.4 0.0 0.8
09:00 7.1 5.7 91 1003.2 15.9 NW 17.4 0.0 0.8
09:01 7.1 5.7 91 1003.3 9.8 N 17.4 0.0 0.8
09:02 7.1 5.7 91 1003.4 9.8 N 17.4 0.0 0.8
09:03 7.1 5.7 91 1003.2 9.8 N 17.4 0.0 0.8
09:04 7.1 5.7 91 1003.4 9.8 N 15.9 0.0 0.8
09:05 7.1 5.7 91 1003.4 9.8 N 15.9 0.0 0.8
09:07 7.1 5.9 92 1003.5 12.1 NE 15.9 0.0 0.8
09:08 7.1 5.9 92 1003.4 13.0 N 15.9 0.0 0.8
09:10 7.1 5.9 92 1003.4 18.3 W 18.3 0.0 0.8
09:11 7.2 6.0 92 1003.4 13.0 W 18.3 0.0 0.8
09:12 7.2 6.0 92 1003.5 15.2 N 18.3 0.0 0.8
09:14 7.2 6.0 92 1003.6 10.7 WNW 18.3 0.0 0.8
09:15 7.2 6.0 92 1003.6 10.7 NW 18.3 0.0 0.8
09:16 7.2 6.0 92 1003.8 9.8 NW 18.3 0.0 0.8
09:17 7.2 6.0 92 1003.7 10.7 NW 18.3 0.0 0.8
09:18 7.2 6.0 92 1003.7 12.1 NW 18.3 0.0 0.8
09:19 7.2 6.0 92 1003.6 13.0 SW 18.3 0.0 0.8
09:20 7.2 6.0 92 1003.6 10.7 NW 15.2 0.0 0.8
09:21 7.2 6.0 92 1003.7 11.4 NW 15.2 0.0 0.8
09:22 7.2 6.0 92 1003.7 11.4 N 15.2 0.0 0.8
09:23 7.2 6.0 92 1003.7 22.1 NW 22.1 0.0 0.8
09:24 7.2 6.0 92 1003.8 12.1 NW 22.1 0.0 0.8
09:26 7.3 6.1 92 1003.8 11.4 NW 22.1 0.0 0.8
09:27 7.3 6.1 92 1003.8 13.0 N 22.1 0.0 0.8
09:28 7.3 6.1 92 1003.7 13.0 N 22.1 0.0 0.8
09:29 7.3 6.1 92 1003.9 13.6 NE 22.1 0.0 0.8
09:30 7.3 6.1 92 1004.0 13.0 W 22.1 0.0 0.8
09:31 7.3 6.1 92 1004.0 13.0 W 22.1 0.0 0.8
09:32 7.3 6.1 92 1003.9 12.1 NW 22.1 0.0 0.8
09:33 7.3 6.1 92 1003.9 10.7 WNW 22.1 0.0 0.8
09:34 7.3 6.1 92 1003.9 10.7 N 22.1 0.0 0.8
09:35 7.3 6.1 92 1004.1 13.6 SW 14.5 0.0 0.8
09:36 7.3 5.9 91 1004.0 6.9 SW 13.6 0.0 0.8
09:37 7.3 5.9 91 1004.1 11.4 NW 13.6 0.0 0.8
09:38 7.3 5.9 91 1004.1 9.8 W 13.6 0.0 0.8
09:39 7.3 5.9 91 1004.2 9.8 W 13.6 0.0 0.8
09:40 7.3 5.9 91 1004.1 13.6 W 13.6 0.0 0.8
09:41 7.3 5.9 91 1004.1 17.4 N 17.4 0.0 0.8
09:42 7.3 5.9 91 1004.1 16.8 NW 17.4 0.0 0.8
09:44 7.4 6.0 91 1004.1 21.3 N 21.3 0.0 0.8
09:45 7.4 6.0 91 1004.1 17.4 N 21.3 0.0 0.8
09:46 7.4 6.0 91 1004.2 13.6 NW 21.3 0.0 0.8
09:47 7.4 6.0 91 1004.1 15.2 W 21.3 0.0 0.8
09:48 7.4 6.0 91 1004.2 13.0 W 21.3 0.0 0.8
09:49 7.5 6.1 91 1004.2 13.0 NW 21.3 0.0 0.8
09:50 7.4 6.0 91 1004.2 13.6 W 21.3 0.0 0.8
09:51 7.4 6.0 91 1004.3 9.2 NW 21.3 0.0 0.8
09:52 7.4 5.9 90 1004.3 13.6 NW 21.3 0.0 0.8
09:53 7.4 5.9 90 1004.2 8.3 W 21.3 0.0 0.8
09:54 7.4 5.9 90 1004.3 9.8 NW 21.3 0.0 0.8
09:55 7.5 6.0 90 1004.4 13.0 NW 18.3 0.0 0.8
09:56 7.5 6.0 90 1004.2 10.7 W 15.2 0.0 0.8
09:57 7.6 6.1 90 1004.1 10.7 NW 13.6 0.0 0.8
09:58 7.6 6.1 90 1004.3 21.3 NW 21.3 0.0 0.8
09:59 7.6 6.1 90 1004.3 15.2 N 21.3 0.0 0.8
10:00 7.7 6.2 90 1004.3 17.4 W 21.3 0.0 0.8
10:01 7.7 6.2 90 1004.3 19.7 W 21.3 0.0 0.8
10:02 7.7 6.2 90 1004.2 19.7 W 21.3 0.0 0.8
10:03 7.7 6.2 90 1004.2 19.0 W 21.3 0.0 0.8
10:05 7.7 6.2 90 1004.3 20.6 W 21.3 0.0 0.8
10:06 7.8 6.1 89 1004.4 13.0 SW 21.3 0.0 0.8
10:07 7.7 6.0 89 1004.5 20.6 W 21.3 0.0 0.8
10:09 7.8 6.1 89 1004.5 15.9 NW 20.6 0.0 0.8
10:10 7.7 5.8 88 1004.4 9.8 NW 20.6 0.0 0.8
10:12 7.7 5.8 88 1004.5 17.4 W 20.6 0.0 0.8
10:13 7.7 5.8 88 1004.5 19.7 W 20.6 0.0 0.8
10:15 7.7 5.8 88 1004.6 18.3 W 20.6 0.0 0.8
10:16 7.7 5.8 88 1004.6 17.4 W 20.6 0.0 0.8
10:17 7.7 5.8 88 1004.5 14.5 W 20.6 0.0 0.8
10:18 7.7 5.8 88 1004.6 18.3 NW 20.6 0.0 0.8
10:19 7.8 5.9 88 1004.6 21.3 NW 21.3 0.0 0.8
10:20 7.8 5.8 87 1004.6 21.3 NW 21.3 0.0 0.8
10:21 7.8 5.8 87 1004.6 15.9 W 21.3 0.0 0.8
10:22 7.8 5.8 87 1004.7 10.7 N 21.3 0.0 0.8
10:23 7.8 5.8 87 1004.8 19.7 NW 21.3 0.0 0.8
10:24 7.8 5.8 87 1004.7 17.4 W 21.3 0.0 0.8
10:26 7.8 5.8 87 1004.7 19.7 W 21.3 0.0 0.8
10:27 7.8 5.6 86 1004.6 20.6 WNW 21.3 0.0 0.8
10:28 7.8 5.6 86 1004.6 15.2 NW 21.3 0.0 0.8
10:29 7.9 5.7 86 1004.7 15.2 NW 21.3 0.0 0.8
10:30 7.9 5.7 86 1004.6 13.0 NW 21.3 0.0 0.8
10:31 7.9 5.7 86 1004.7 12.1 W 20.6 0.0 0.8
10:32 7.9 5.7 86 1004.7 12.1 NW 20.6 0.0 0.8
10:33 7.9 5.7 86 1004.7 15.2 W 20.6 0.0 0.8
10:34 7.9 5.5 85 1004.7 19.7 NW 20.6 0.0 0.8
10:36 7.9 5.5 85 1004.7 10.7 SW 20.6 0.0 0.8
10:37 7.9 5.5 85 1004.8 11.4 W 20.6 0.0 0.8
10:38 8.0 5.6 85 1004.8 13.0 W 19.7 0.0 0.8
10:39 8.0 5.6 85 1004.8 14.5 W 19.7 0.0 0.8
10:40 8.0 5.6 85 1004.9 15.2 NW 19.7 0.0 0.8
10:41 8.0 5.6 85 1004.9 14.5 NW 19.7 0.0 0.8
10:42 8.1 5.7 85 1004.8 9.8 N 19.7 0.0 0.8
10:43 8.1 5.7 85 1004.9 15.2 N 19.7 0.0 0.8
10:44 8.1 5.7 85 1004.8 10.7 NW 19.7 0.0 0.8
10:45 8.1 5.7 85 1005.0 10.7 W 18.3 0.0 0.8
10:46 8.2 5.8 85 1004.8 18.3 W 18.3 0.0 0.8
10:47 8.2 5.8 85 1004.9 13.0 NW 18.3 0.0 0.8
10:48 8.2 5.8 85 1005.0 10.7 W 18.3 0.0 0.8
10:49 8.3 5.9 85 1004.8 18.3 NW 18.3 0.0 0.8
10:51 8.3 6.1 86 1005.0 13.6 W 19.7 0.0 0.8
10:52 8.3 6.1 86 1005.0 14.5 W 19.7 0.0 0.8
10:53 8.3 6.1 86 1004.9 20.6 NW 20.6 0.0 0.8
10:54 8.3 6.1 86 1005.1 16.8 W 20.6 0.0 0.8
10:56 8.2 6.0 86 1005.0 21.3 W 21.3 0.0 0.8
10:57 8.1 5.9 86 1005.1 15.9 W 21.3 0.0 0.8
10:58 8.0 6.0 87 1005.1 18.3 E 21.3 0.0 0.8
10:59 8.0 6.0 87 1005.2 17.4 N 21.3 0.0 0.9
11:00 7.9 5.9 87 1005.0 17.4 NW 21.3 0.8 0.9
11:01 7.9 5.9 87 1005.1 10.7 NW 21.3 0.8 0.9
11:02 7.8 5.8 87 1005.1 10.7 W 21.3 0.8 0.9
11:03 7.8 5.8 87 1005.0 10.7 W 21.3 0.8 0.9
11:04 7.8 5.8 87 1005.1 10.7 W 21.3 0.8 0.9
11:05 7.8 5.8 87 1005.2 10.7 W 21.3 0.0 0.9
11:06 7.5 5.6 88 1005.0 13.0 SW 19.0 0.0 0.9
11:08 7.5 5.6 88 1005.1 15.9 W 18.3 0.0 0.9
11:09 7.4 5.7 89 1005.1 9.2 W 17.4 0.0 0.9
11:11 7.5 6.0 90 1005.1 9.8 W 15.9 0.0 0.9
11:12 7.5 6.1 91 1005.3 6.0 N 15.9 0.0 0.9
11:14 7.6 6.2 91 1005.1 9.2 N 15.9 0.0 0.9
11:15 7.6 6.4 92 1005.1 13.6 WNW 15.9 0.0 0.9
11:16 7.7 6.5 92 1005.1 16.8 N 16.8 0.0 0.9
11:17 7.7 6.5 92 1005.2 15.2 NW 16.8 0.0 0.9
11:18 7.8 6.6 92 1005.3 8.3 NE 17.4 0.0 0.9
11:19 7.9 6.7 92 1005.2 13.6 NW 17.4 0.0 0.9
11:20 8.0 6.9 93 1005.2 6.9 N 17.4 0.0 0.9
11:21 8.1 6.9 92 1005.3 10.7 NW 17.4 0.0 0.9
11:22 8.1 6.9 92 1005.1 16.8 NW 17.4 0.0 0.9
11:23 8.1 6.9 92 1005.1 13.6 NW 17.4 0.0 0.9
11:24 8.1 6.9 92 1005.3 17.4 NW 17.4 0.0 0.9
11:25 8.1 6.9 92 1005.3 15.9 NW 17.4 0.0 0.9
11:26 8.1 6.9 92 1005.3 15.2 NW 17.4 0.0 0.9
11:27 8.0 6.6 91 1005.3 13.6 NW 17.4 0.0 0.9
11:28 7.9 6.5 91 1005.3 14.5 NW 17.4 0.0 0.9
11:29 7.9 6.5 91 1005.2 9.8 N 17.4 0.0 0.9
11:30 7.8 6.4 91 1005.4 6.9 WNW 17.4 0.0 0.9
11:31 7.7 6.3 91 1005.3 12.1 NW 17.4 0.0 0.9
11:32 7.7 6.5 92 1005.4 11.4 N 17.4 0.0 0.9
11:33 7.7 6.5 92 1005.3 12.1 NW 17.4 0.0 0.9
11:34 7.6 6.4 92 1005.4 13.0 N 17.4 0.0 0.9
11:35 7.6 6.5 93 1005.3 19.0 NW 19.0 0.0 0.9
11:36 7.6 6.5 93 1005.2 14.5 W 19.0 0.0 0.9
11:37 7.6 6.5 93 1005.4 9.2 NW 19.0 0.8 0.9
11:38 7.6 6.5 93 1005.3 9.8 W 19.0 0.8 0.9
11:39 7.6 6.5 93 1005.4 12.1 NW 19.0 0.8 0.9
11:40 7.5 6.4 93 1005.3 11.4 NW 19.0 0.8 0.9
11:41 7.5 6.4 93 1005.4 13.6 NW 19.0 0.8 0.9
11:42 7.5 6.4 93 1005.3 10.7 NW 19.0 0.0 0.9
11:43 7.4 6.3 93 1005.3 13.6 NW 19.0 0.0 0.9
11:44 7.4 6.5 94 1005.4 12.1 NW 19.0 0.0 0.9
11:46 7.4 6.5 94 1005.4 10.7 NW 14.5 0.0 0.9
11:47 7.4 6.5 94 1005.4 9.8 W 13.6 0.0 0.9
11:48 7.4 6.5 94 1005.5 13.0 NW 13.6 0.0 0.9
11:49 7.4 6.5 94 1005.4 10.7 NW 14.5 0.0 0.9
11:50 7.4 6.5 94 1005.5 7.6 NW 14.5 0.0 0.9
11:51 7.4 6.5 94 1005.5 13.6 NW 14.5 0.0 0.9
11:52 7.4 6.5 94 1005.4 9.2 W 14.5 0.0 0.9
11:53 7.4 6.5 94 1005.5 13.0 N 14.5 0.0 0.9
11:54 7.3 6.4 94 1005.6 8.3 NW 14.5 0.0 0.9
11:55 7.4 6.7 95 1005.5 10.7 NW 14.5 0.0 0.9
11:56 7.4 6.7 95 1005.7 10.7 W 14.5 0.0 0.9
11:57 7.5 6.9 96 1005.6 13.6 W 15.2 0.0 0.9
11:58 7.6 7.0 96 1005.3 14.5 W 15.2 0.0 0.9
11:59 7.7 7.1 96 1005.6 15.9 W 15.9 0.0 0.9
12:00 7.8 7.2 96 1005.6 14.5 NW 15.9 0.0 0.9
12:01 7.8 7.1 95 1005.7 18.3 W 18.3 0.0 1.1
12:02 7.8 7.1 95 1005.7 18.3 W 18.3 1.5 1.1
12:03 7.8 7.1 95 1005.5 18.3 W 18.3 1.5 1.1
12:04 7.8 7.1 95 1005.7 18.3 W 18.3 1.5 1.1
12:06 7.8 7.1 95 1005.7 18.3 W 18.3 1.5 1.1
12:07 7.6 6.9 95 1005.6 19.0 W 19.0 2.3 1.3
12:08 7.6 6.9 95 1005.7 16.8 NW 19.0 2.3 1.3
12:10 7.5 6.8 95 1005.8 13.6 W 19.0 2.3 1.3
12:12 7.4 6.7 95 1005.7 13.6 SW 19.0 3.0 1.5
12:13 7.3 6.6 95 1005.8 13.0 NW 19.0 3.0 1.5
12:14 7.2 6.5 95 1005.8 8.3 NW 19.0 3.0 1.5
12:15 7.1 6.4 95 1005.8 17.4 SW 19.0 3.0 1.5
12:17 7.0 6.3 95 1005.9 9.8 N 19.0 0.0 1.5
12:18 7.0 6.3 95 1005.8 8.3 N 19.0 0.0 1.5
12:19 7.0 6.4 96 1005.7 11.4 N 20.6 0.0 1.5
12:20 6.9 6.3 96 1005.7 12.1 NW 20.6 0.0 1.5
12:21 6.9 6.3 96 1005.7 12.1 NW 20.6 0.0 1.5
12:22 6.9 6.3 96 1005.7 13.0 N 20.6 0.0 1.6
12:23 6.9 6.3 96 1005.7 9.2 NW 20.6 0.8 1.6
12:24 6.9 6.3 96 1005.7 8.3 SW 20.6 0.8 1.6
12:25 6.9 6.3 96 1005.7 10.7 NW 20.6 0.8 1.6
12:27 6.9 6.3 96 1005.6 8.3 W 20.6 0.8 1.6
12:28 7.0 6.6 97 1005.7 15.2 N 20.6 0.0 1.6
12:29 7.0 6.6 97 1005.7 12.1 NW 20.6 0.0 1.6
12:30 7.1 6.7 97 1005.7 12.1 SW 15.2 0.0 1.6
12:31 7.1 6.7 97 1005.8 13.0 NW 15.2 0.0 1.6
12:32 7.1 6.7 97 1005.5 15.9 NW 15.9 0.0 1.6
12:33 7.2 6.9 98 1005.7 6.9 NW 15.9 0.0 1.6
12:34 7.2 6.9 98 1005.6 11.4 N 15.9 0.0 1.6
12:35 7.3 7.0 98 1005.8 7.6 S 15.9 0.0 1.6
12:36 7.3 7.2 99 1005.7 6.9 W 15.9 0.0 1.6
12:37 7.5 7.4 99 1005.7 8.3 NW 15.9 0.0 1.6
12:38 7.5 7.4 99 1005.7 15.2 NW 15.9 0.0 1.6
12:39 7.6 7.5 99 1005.8 19.0 NW 19.0 0.0 1.6
12:40 7.6 7.3 98 1005.8 15.9 NW 19.0 0.0 1.6
12:41 7.6 7.3 98 1005.9 15.2 W 19.0 0.0 1.6
12:42 7.6 7.3 98 1005.7 11.4 W 19.0 0.0 1.6
12:43 7.6 7.3 98 1005.9 14.5 NW 19.0 0.0 1.6
12:44 7.6 7.3 98 1005.9 9.8 W 19.0 0.0 1.6
12:45 7.6 7.2 97 1005.9 13.0 W 19.0 0.0 1.6
12:46 7.5 7.1 97 1005.9 9.8 W 19.0 0.0 1.6
12:47 7.5 7.1 97 1006.0 16.8 WNW 19.0 0.0 1.6
12:48 7.6 7.2 97 1006.1 17.4 W 19.0 0.0 1.6
12:49 7.5 7.1 97 1006.1 13.0 SW 17.4 0.0 1.6
12:50 7.5 7.1 97 1006.0 12.1 W 17.4 0.0 1.6
12:51 7.6 7.2 97 1006.1 15.2 NW 17.4 0.0 1.6
12:52 7.5 7.1 97 1006.1 18.3 W 18.3 0.0 1.6
12:53 7.6 7.2 97 1006.1 15.9 N 18.3 0.0 1.6
12:54 7.5 7.1 97 1006.2 10.7 W 18.3 0.0 1.6
12:55 7.5 7.1 97 1006.2 12.1 NW 18.3 0.0 1.6
12:56 7.5 7.1 97 1006.2 8.3 NW 18.3 0.0 1.6
12:57 7.5 7.1 97 1006.2 15.2 NW 18.3 0.0 1.6
12:58 7.5 7.1 97 1006.2 16.8 N 18.3 0.0 1.6
12:59 7.5 7.1 97 1006.3 13.6 NW 18.3 0.0 1.6
13:00 7.5 7.1 97 1006.4 28.9 NW 28.9 0.0 1.6
13:01 7.5 7.1 97 1006.3 15.9 NW 28.9 0.8 1.7
13:02 7.5 7.1 97 1006.4 15.9 NW 28.9 1.5 1.7
13:03 7.5 7.1 97 1006.4 15.9 NW 28.9 1.5 1.7
13:04 7.5 7.1 97 1006.4 15.9 NW 28.9 1.5 1.7
13:06 7.5 7.1 97 1006.4 15.9 NW 28.9 0.8 1.7
13:07 7.3 6.9 97 1006.4 13.0 NW 28.9 0.0 1.7
13:09 7.2 6.8 97 1006.4 13.0 NW 28.9 0.0 1.7
13:10 7.2 6.8 97 1006.4 19.0 NW 28.9 0.0 1.7
13:12 7.2 6.8 97 1006.6 14.5 NW 19.0 0.0 1.7
13:13 7.2 6.8 97 1006.5 16.8 E 19.0 0.0 1.7
13:14 7.2 6.8 97 1006.6 19.0 N 19.0 0.0 1.7
13:15 7.2 6.8 97 1006.6 16.8 NW 19.0 0.0 1.7
13:16 7.3 6.9 97 1006.6 13.0 NW 19.0 0.0 1.7
13:17 7.3 6.9 97 1006.7 11.4 NE 19.0 0.0 1.7
13:18 7.3 6.9 97 1006.7 10.7 N 19.0 0.0 1.7
13:19 7.3 6.9 97 1006.7 12.1 NW 19.0 0.0 1.7
13:21 7.3 6.9 97 1006.5 16.8 NW 19.0 0.0 1.7
13:22 7.3 6.9 97 1006.7 11.4 NW 19.0 0.0 1.7
13:23 7.3 6.9 97 1006.6 19.0 WNW 19.0 0.0 1.8
13:24 7.3 6.9 97 1006.9 12.1 NW 19.0 0.8 1.8
13:25 7.4 7.0 97 1006.8 15.9 N 19.0 0.8 1.8
13:26 7.4 7.0 97 1006.7 20.6 NE 20.6 0.8 1.8
13:27 7.4 7.0 97 1006.9 16.8 NW 20.6 0.8 1.8
13:28 7.4 7.0 97 1006.7 13.6 NW 20.6 0.8 1.8
13:29 7.4 7.0 97 1006.9 11.4 NW 20.6 0.0 1.8
13:30 7.4 7.0 97 1006.8 13.6 N 20.6 0.0 1.8
13:31 7.4 7.0 97 1006.6 13.0 W 20.6 0.0 1.8
13:32 7.5 7.1 97 1006.7 15.2 WNW 20.6 0.0 1.8
13:33 7.5 7.1 97 1007.0 19.7 W 20.6 0.0 1.8
13:34 7.5 7.1 97 1006.8 14.5 NW 20.6 0.0 1.8
13:35 7.5 7.1 97 1007.0 15.9 NW 20.6 0.0 1.8
13:37 7.4 7.0 97 1007.0 9.2 WNW 20.6 0.0 1.8
13:39 7.4 7.0 97 1007.0 11.4 NW 20.6 0.0 1.8
13:40 7.4 7.0 97 1007.2 9.2 NW 20.6 0.0 1.8
13:41 7.4 7.0 97 1007.2 13.0 N 20.6 0.0 1.8
13:42 7.4 7.0 97 1007.1 7.6 N 20.6 0.0 1.8
13:43 7.3 6.9 97 1007.2 13.0 N 20.6 0.0 1.8
13:44 7.3 6.9 97 1007.2 12.1 N 20.6 0.0 1.8
13:45 7.2 6.8 97 1007.1 11.4 N 20.6 0.0 1.8
13:46 7.2 6.8 97 1007.1 9.8 N 20.6 0.0 1.8
13:47 7.1 6.5 96 1007.2 5.4 NW 13.0 0.0 1.8
13:48 7.1 6.5 96 1007.3 7.6 N 13.0 0.0 1.8
13:49 7.0 6.6 97 1007.2 7.6 N 13.0 0.0 1.8
13:50 7.0 6.6 97 1007.3 7.6 NW 13.0 0.0 1.8
13:51 6.9 6.5 97 1007.2 6.0 NW 13.0 0.0 1.8
13:52 6.9 6.5 97 1007.2 5.4 NW 13.0 0.0 1.8
13:53 6.9 6.5 97 1007.2 4.5 NW 13.0 0.0 1.8
13:54 6.8 6.4 97 1007.3 6.9 N 12.1 0.0 1.8
13:55 6.8 6.4 97 1007.2 14.5 NW 14.5 0.0 1.8
13:56 6.8 6.4 97 1007.3 19.0 NW 19.0 0.8 1.8
13:58 6.7 6.3 97 1007.2 13.6 NW 19.0 0.8 1.8
13:59 6.8 6.4 97 1007.2 15.2 NW 19.0 0.8 1.8
14:00 6.8 6.4 97 1007.2 14.5 N 19.0 0.8 1.8
14:01 6.8 6.5 98 1007.3 14.5 NW 19.0 0.8 1.9
14:02 6.8 6.5 98 1007.4 14.5 NW 19.0 0.8 1.9
14:04 6.8 6.5 98 1007.3 14.5 NW 19.0 0.8 1.9
14:06 6.9 6.6 98 1007.5 19.0 NW 19.0 0.0 2.4
14:08 6.9 6.6 98 1007.3 10.7 NW 19.0 7.6 2.5
14:10 6.8 6.5 98 1007.2 15.9 NW 20.6 7.6 2.6
14:12 6.7 6.4 98 1007.4 13.6 N 20.6 2.3 2.6
14:13 6.7 6.4 98 1007.3 9.8 NW 20.6 0.8 2.6
14:14 6.7 6.4 98 1007.4 11.4 NW 20.6 0.8 2.6
14:16 6.6 6.3 98 1007.5 12.1 NW 20.6 0.0 2.6
14:17 6.6 6.3 98 1007.4 9.8 NW 20.6 0.0 2.6
14:18 6.6 6.3 98 1007.4 7.6 W 20.6 0.0 2.6
14:19 6.6 6.3 98 1007.4 9.8 W 16.8 0.0 2.6
14:21 6.6 6.3 98 1007.5 14.5 NW 16.8 0.0 2.6
14:22 6.6 6.5 99 1007.5 10.7 W 16.8 0.0 2.6
14:23 6.6 6.5 99 1007.4 15.2 NW 15.2 0.0 2.6
14:24 6.6 6.5 99 1007.5 10.7 N 15.2 0.0 2.6
14:25 6.6 6.5 99 1007.4 17.4 N 17.4 0.0 2.6
14:26 6.6 6.5 99 1007.5 9.8 WNW 17.4 0.0 2.6
14:27 6.6 6.5 99 1007.7 10.7 NE 17.4 0.0 2.6
14:28 6.6 6.5 99 1007.7 19.7 E 19.7 0.0 2.6
14:29 6.7 6.6 99 1007.7 13.6 NW 19.7 0.0 2.6
14:31 6.7 6.6 99 1007.7 13.6 NW 19.7 1.5 2.7
14:32 6.7 6.6 99 1007.8 16.8 WNW 19.7 1.5 2.7
14:33 6.7 6.6 99 1007.6 13.6 W 19.7 1.5 2.7
14:34 6.6 6.5 99 1007.5 15.2 N 19.7 1.5 2.7
14:35 6.6 6.5 99 1007.7 13.0 NW 19.7 0.8 2.7
14:36 6.6 6.5 99 1007.6 15.9 NW 19.7 0.0 2.7
14:38 6.6 6.5 99 1007.6 10.7 NW 19.7 0.0 2.7
14:39 6.6 6.5 99 1007.7 15.9 WNW 18.3 0.0 2.7
14:40 6.6 6.5 99 1007.5 16.8 N 18.3 0.0 2.7
14:41 6.5 6.4 99 1007.7 16.8 NW 18.3 0.8 2.8
14:42 6.6 6.5 99 1007.8 10.7 NW 18.3 0.8 2.8
14:43 6.5 6.4 99 1007.7 15.2 NW 16.8 0.8 2.8
14:44 6.5 6.4 99 1007.9 12.1 NW 16.8 0.8 2.8
14:46 6.5 6.4 99 1007.7 17.4 N 17.4 0.0 2.8
14:47 6.5 6.4 99 1007.7 13.0 N 17.4 0.0 2.8
14:48 6.5 6.4 99 1007.9 13.6 W 17.4 0.0 2.8
14:49 6.5 6.4 99 1007.7 10.7 NW 17.4 0.8 2.8
14:51 6.5 6.4 99 1007.7 16.8 N 18.3 0.8 2.8
14:52 6.5 6.4 99 1007.7 13.0 W 18.3 0.8 2.8
14:53 6.5 6.4 99 1007.8 14.5 WNW 18.3 0.8 2.8
14:54 6.6 6.5 99 1008.0 13.0 NW 18.3 0.0 2.8
14:56 6.5 6.4 99 1008.0 12.1 NW 18.3 0.0 2.8
14:58 6.5 6.4 99 1008.2 13.6 NW 18.3 0.0 2.8
14:59 6.5 6.4 99 1008.1 19.7 NW 19.7 0.0 2.8
15:01 6.6 6.5 99 1008.1 15.2 W 19.7 0.0 2.8
15:02 6.6 6.5 99 1008.4 15.2 W 19.7 0.0 2.8
15:03 6.5 6.4 99 1008.2 13.0 N 19.7 0.0 2.8
15:04 6.5 6.4 99 1008.2 15.9 NW 19.7 0.0 2.8
15:06 6.5 6.4 99 1008.4 10.7 NW 19.7 0.0 2.8
15:07 6.5 6.4 99 1008.2 12.1 NW 19.7 0.0 2.8
15:09 6.5 6.4 99 1008.2 6.9 N 19.7 0.8 2.9
15:10 6.5 6.4 99 1008.1 7.6 NW 15.9 0.8 2.9
15:12 6.4 6.3 99 1008.2 6.9 NW 15.9 0.8 2.9
15:13 6.4 6.3 99 1008.3 11.4 NE 15.9 0.0 2.9
15:15 6.4 6.3 99 1008.3 10.7 NW 14.5 0.0 2.9
15:16 6.4 6.3 99 1008.5 6.9 N 12.1 0.0 2.9
15:18 6.4 6.3 99 1008.6 12.1 N 12.1 0.0 3.0
15:19 6.4 6.3 99 1008.5 9.8 NW 13.0 0.8 3.0
15:21 6.4 6.3 99 1008.6 10.7 NW 13.0 2.3 3.1
15:22 6.3 6.2 99 1008.6 13.6 NW 16.8 2.3 3.1
15:23 6.3 6.2 99 1008.6 13.0 NW 16.8 3.0 3.1
15:24 6.3 6.2 99 1008.6 13.0 W 16.8 2.3 3.1
15:26 6.3 6.2 99 1008.5 9.2 NW 16.8 0.8 3.2
15:27 6.3 6.2 99 1008.5 12.1 WNW 16.8 1.5 3.2
15:28 6.3 6.2 99 1008.5 12.1 N 16.8 0.8 3.2
15:30 6.3 6.2 99 1008.7 9.8 NW 16.8 0.8 3.3
15:31 6.3 6.2 99 1008.7 13.0 WNW 16.8 3.0 3.4
15:32 6.4 6.3 99 1008.6 13.0 N 16.8 2.3 3.4
15:33 6.3 6.2 99 1008.6 13.6 WNW 13.6 2.3 3.4
15:34 6.3 6.2 99 1008.7 11.4 NW 13.6 2.3 3.5
15:36 6.3 6.2 99 1008.7 10.7 NW 13.6 0.8 3.5
15:37 6.3 6.2 99 1008.7 11.4 N 13.6 0.8 3.5
15:38 6.3 6.2 99 1008.8 16.8 NW 16.8 0.8 3.5
15:39 6.3 6.2 99 1008.8 10.7 N 16.8 0.8 3.5
15:41 6.3 6.2 99 1008.7 14.5 NW 16.8 0.0 3.5
15:42 6.3 6.2 99 1008.9 12.1 N 16.8 0.0 3.5
15:43 6.3 6.2 99 1008.7 10.7 NW 16.8 0.0 3.5
15:44 6.3 6.2 99 1009.0 16.8 NW 16.8 0.0 3.5
15:45 6.3 6.2 99 1008.9 13.6 NW 16.8 0.0 3.5
15:47 6.3 6.2 99 1008.9 13.0 NW 19.0 0.0 3.5
15:48 6.3 6.2 99 1008.9 14.5 E 19.0 0.0 3.5
15:50 6.3 6.2 99 1009.0 16.8 NW 19.0 0.0 3.5
15:51 6.3 6.2 99 1008.8 12.1 WNW 19.0 0.0 3.5
15:52 6.3 6.2 99 1008.9 6.0 N 19.0 0.0 3.5
15:53 6.3 6.2 99 1009.0 13.0 NW 19.0 0.0 3.5
15:54 6.3 6.2 99 1008.9 15.2 NW 19.0 0.0 3.5
15:55 6.3 6.2 99 1008.8 14.5 N 19.0 0.0 3.5
15:56 6.3 6.2 99 1009.1 15.9 NW 16.8 0.0 3.5
15:58 6.3 6.2 99 1009.1 9.2 N 16.8 0.0 3.5
15:59 6.3 6.2 99 1009.1 10.7 NW 16.8 0.0 3.5
16:00 6.3 6.2 99 1009.2 14.5 N 16.8 0.0 3.5
16:01 6.3 6.2 99 1009.4 18.3 NW 18.3 0.0 3.5
16:02 6.3 6.2 99 1009.1 18.3 NW 18.3 0.0 3.5
16:03 6.4 6.3 99 1009.1 15.2 N 18.3 0.8 3.5
16:04 6.4 6.3 99 1009.2 11.4 NE 18.3 0.8 3.5
16:05 6.4 6.3 99 1009.3 10.7 NW 18.3 0.8 3.5
16:07 6.4 6.3 99 1009.3 13.6 NW 18.3 0.8 3.5
16:09 6.4 6.3 99 1009.2 14.5 NW 18.3 0.0 3.5
16:10 6.4 6.3 99 1009.3 12.1 NW 18.3 0.0 3.5
16:12 6.4 6.3 99 1009.3 11.4 N 16.8 0.0 3.5
16:13 6.4 6.3 99 1009.4 9.2 NW 15.2 0.0 3.5
16:15 6.4 6.3 99 1009.4 11.4 N 15.9 0.0 3.5
16:17 6.4 6.3 99 1009.4 15.9 N 15.9 0.0 3.5
16:18 6.4 6.3 99 1009.4 15.9 NW 15.9 0.0 3.5
16:19 6.4 6.3 99 1009.4 16.8 NW 16.8 0.0 3.5
16:20 6.4 6.3 99 1009.4 15.9 N 16.8 0.0 3.5
16:21 6.4 6.3 99 1009.5 11.4 W 16.8 0.0 3.5
16:22 6.4 6.3 99 1009.4 12.1 NW 16.8 0.0 3.5
16:23 6.4 6.3 99 1009.5 12.1 NW 16.8 0.0 3.5
16:24 6.4 6.3 99 1009.5 19.7 NW 19.7 0.0 3.5
16:25 6.4 6.3 99 1009.5 10.7 NW 19.7 0.0 3.5
16:27 6.4 6.3 99 1009.5 10.7 NW 19.7 0.0 3.5
16:28 6.4 6.3 99 1009.7 12.1 NW 19.7 0.0 3.5
16:29 6.5 6.4 99 1009.6 11.4 NW 19.7 0.0 3.5
16:30 6.5 6.4 99 1009.7 15.9 NW 19.7 0.0 3.5
16:31 6.5 6.4 99 1009.7 9.2 NW 19.7 0.0 3.5
16:32 6.5 6.4 99 1009.8 19.0 W 19.7 0.0 3.5
16:33 6.5 6.4 99 1009.8 11.4 NW 19.7 0.0 3.5
16:34 6.5 6.4 99 1009.9 13.6 W 19.7 0.0 3.5
16:35 6.5 6.4 99 1009.8 12.1 N 19.0 0.0 3.5
16:36 6.5 6.4 99 1009.8 11.4 NW 19.0 0.0 3.5
16:37 6.5 6.4 99 1009.9 13.0 W 19.0 0.0 3.5
16:39 6.5 6.4 99 1009.8 10.7 NW 19.0 0.0 3.5
16:40 6.5 6.4 99 1009.8 8.3 N 19.0 0.0 3.5
16:41 6.5 6.4 99 1009.7 10.7 N 19.0 0.8 3.6
16:42 6.5 6.4 99 1009.8 8.3 NW 19.0 0.8 3.6
16:43 6.5 6.4 99 1009.8 10.7 NW 14.5 0.8 3.6
16:44 6.5 6.4 99 1009.9 9.8 NW 16.8 0.8 3.6
16:45 6.5 6.4 99 1009.7 10.7 NW 16.8 0.8 3.6
16:46 6.5 6.4 99 1009.7 9.2 N 16.8 0.0 3.6
16:47 6.5 6.4 99 1009.9 10.7 N 16.8 0.0 3.6
16:48 6.5 6.4 99 1009.9 8.3 N 16.8 0.0 3.6
16:49 6.5 6.4 99 1010.0 8.3 N 16.8 0.0 3.6
16:50 6.5 6.4 99 1010.1 9.8 WNW 16.8 0.0 3.6
16:52 6.5 6.4 99 1010.2 9.8 NW 16.8 0.0 3.6
16:53 6.5 6.4 99 1010.3 9.2 N 16.8 0.0 3.6
16:54 6.5 6.4 99 1010.2 12.1 N 12.1 0.0 3.6
16:55 6.5 6.4 99 1010.4 9.2 NW 12.1 0.0 3.6
16:56 6.5 6.4 99 1010.3 16.8 NW 16.8 0.0 3.7
16:57 6.5 6.4 99 1010.2 17.4 NW 17.4 0.8 3.7
16:58 6.4 6.3 99 1010.3 12.1 W 17.4 0.8 3.7
16:59 6.5 6.4 99 1010.5 9.2 NW 17.4 0.8 3.7
17:01 6.5 6.4 99 1010.5 7.6 W 17.4 1.5 3.7
17:02 6.5 6.4 99 1010.4 7.6 W 17.4 0.8 3.7
17:04 6.5 6.4 99 1010.4 7.6 W 17.4 0.8 3.7
17:05 6.5 6.4 99 1010.4 7.6 W 17.4 0.8 3.7
17:06 6.5 6.4 99 1010.5 7.6 W 17.4 0.0 3.7
17:07 6.4 6.3 99 1010.4 9.8 W 17.4 0.0 3.7
17:09 6.4 6.3 99 1010.5 11.4 NW 13.0 0.0 3.7
17:10 6.4 6.3 99 1010.5 8.3 NW 11.4 0.0 3.7
17:12 6.4 6.3 99 1010.6 6.9 N 11.4 0.0 3.8
17:13 6.4 6.3 99 1011.0 15.9 W 15.9 2.3 4.2
17:15 6.4 6.3 99 1010.9 16.8 W 16.8 9.1 4.6
17:17 6.3 6.2 99 1011.1 16.8 NW 18.3 12.1 4.9
17:18 6.2 6.1 99 1010.9 10.7 NW 18.3 13.6 5.0
17:19 6.1 6.0 99 1011.0 9.8 N 18.3 12.1 5.2
17:20 6.0 5.9 99 1011.0 10.7 N 18.3 9.1 5.2
17:22 5.9 5.8 99 1010.7 10.7 W 18.3 4.5 5.3
17:23 5.9 5.8 99 1010.9 12.1 NW 18.3 4.5 5.4
17:24 5.9 5.8 99 1011.0 9.2 NW 18.3 2.3 5.4
17:25 5.8 5.7 99 1010.9 9.8 NW 18.3 2.3 5.5
17:26 5.8 5.7 99 1011.1 7.6 N 16.8 3.8 5.6
17:27 5.8 5.7 99 1010.9 7.6 N 12.1 3.8 5.6
17:29 5.8 5.7 99 1011.0 9.8 NW 12.1 3.8 5.7
17:30 5.8 5.7 99 1011.0 6.9 NW 12.1 3.0 5.7
17:31 5.8 5.7 99 1011.1 10.7 W 12.1 1.5 5.7
17:32 5.8 5.7 99 1010.9 10.7 WNW 12.1 2.3 5.8
17:33 5.8 5.7 99 1011.1 12.1 N 12.1 3.0 6.0
17:35 5.8 5.7 99 1011.2 11.4 NW 12.1 5.3 6.1
17:36 5.8 5.7 99 1010.9 10.7 E 12.1 6.0 6.2
17:37 5.8 5.7 99 1010.9 9.8 NW 12.1 4.5 6.2
17:38 5.8 5.7 99 1011.0 8.3 N 12.1 3.0 6.2
17:39 5.8 5.7 99 1011.0 10.7 N 12.1 1.5 6.2
17:41 5.8 5.7 99 1011.0 9.2 NW 12.1 0.8 6.2
17:42 5.8 5.7 99 1011.1 6.9 NW 12.1 1.5 6.3
17:43 5.9 5.8 99 1011.2 9.2 NW 12.1 1.5 6.3
17:44 5.9 5.8 99 1011.2 13.0 WSW 13.0 1.5 6.3
17:45 5.9 5.8 99 1011.2 15.2 N 15.2 0.8 6.3
17:47 5.9 5.8 99 1011.3 9.8 NE 15.2 0.0 6.3
17:48 5.9 5.8 99 1011.3 9.8 N 15.2 0.0 6.3
17:50 5.9 5.8 99 1011.2 8.3 N 15.2 0.0 6.3
17:52 5.9 5.8 99 1011.3 6.0 N 15.2 0.0 6.3
17:53 5.9 5.8 99 1011.4 6.0 NW 15.2 0.0 6.3
17:54 5.9 5.8 99 1011.3 8.3 NW 15.2 0.0 6.3
17:56 5.9 5.8 99 1011.2 8.3 NW 10.7 0.0 6.3
17:57 5.9 5.8 99 1011.2 6.9 NW 10.7 0.0 6.3
17:58 5.8 5.7 99 1011.3 6.9 N 10.7 0.0 6.3
17:59 5.8 5.7 99 1011.5 4.5 W 10.7 0.0 6.3
18:00 5.8 5.7 99 1011.3 6.9 N 8.3 0.0 6.3
18:01 5.8 5.7 99 1011.5 6.9 N 8.3 0.0 6.3
18:03 5.8 5.7 99 1011.4 6.9 N 8.3 0.0 6.3
18:04 5.8 5.7 99 1011.5 6.9 N 8.3 0.0 6.3
18:05 5.8 5.7 99 1011.5 6.9 N 8.3 0.0 6.3
18:06 5.8 5.7 99 1011.6 6.9 N 7.6 0.0 6.3
18:08 5.8 5.7 99 1011.6 8.3 NW 8.3 0.8 6.4
18:10 5.9 5.8 99 1011.5 3.1 N 8.3 0.8 6.4
18:12 5.9 5.8 99 1011.6 5.4 NW 8.3 0.8 6.4
18:13 5.9 5.8 99 1011.7 11.4 NW 11.4 0.0 6.4
18:15 5.9 5.8 99 1011.7 12.1 NW 12.1 0.8 6.4
18:17 5.9 5.8 99 1011.6 12.1 NW 12.1 1.5 6.5
18:18 5.9 5.8 99 1011.8 8.3 N 12.1 1.5 6.6
18:20 6.0 5.9 99 1011.7 13.6 N 13.6 1.5 6.6
18:21 6.0 5.9 99 1011.7 8.3 N 13.6 0.8 6.6
18:22 6.0 5.9 99 1011.6 11.4 W 13.6 0.8 6.6
18:24 6.0 5.9 99 1011.7 6.9 NW 13.6 0.0 6.6
18:25 6.0 5.9 99 1011.7 6.9 N 13.6 0.0 6.6
18:27 6.0 5.9 99 1011.9 10.7 N 13.6 0.0 6.6
18:28 6.1 6.0 99 1011.7 15.2 NW 15.2 0.0 6.6
18:29 6.1 6.0 99 1011.8 8.3 N 15.2 0.0 6.6
18:31 6.1 6.0 99 1011.8 9.8 W 15.2 0.0 6.6
18:32 6.0 5.9 99 1011.9 9.2 N 15.2 0.0 6.6
18:33 6.0 5.9 99 1011.9 9.8 N 15.2 0.0 6.6
18:34 6.0 5.9 99 1011.9 5.4 W 15.2 0.0 6.6
18:35 6.0 5.9 99 1012.1 10.7 NW 15.2 0.0 6.6
18:36 6.0 5.9 99 1012.1 9.8 NW 15.2 0.0 6.6
18:38 6.0 5.9 99 1012.3 11.4 NW 15.2 0.0 6.6
18:39 6.0 5.9 99 1012.1 16.8 NW 16.8 0.8 6.6
18:40 6.0 5.9 99 1012.2 10.7 NW 16.8 0.8 6.6
18:41 6.0 5.9 99 1012.2 10.7 NW 16.8 0.8 6.6
18:43 6.0 5.9 99 1012.1 6.9 N 16.8 0.8 6.6
18:44 5.9 5.8 99 1012.2 8.3 NW 16.8 0.0 6.6
18:45 5.9 5.8 99 1012.2 4.5 N 16.8 0.0 6.7
18:46 5.9 5.8 99 1012.1 6.0 NW 16.8 0.8 6.7
18:48 5.9 5.8 99 1012.1 6.0 N 16.8 0.8 6.7
18:49 5.9 5.8 99 1012.2 7.6 NW 13.6 0.8 6.7
18:50 5.9 5.8 99 1012.3 8.3 N 10.7 0.8 6.7
18:51 5.9 5.8 99 1012.1 7.6 N 10.7 0.0 6.7
18:52 5.9 5.8 99 1012.3 8.3 NW 8.3 0.0 6.7
18:54 5.9 5.8 99 1012.4 9.8 NE 9.8 0.0 6.7
18:55 5.9 5.8 99 1012.5 6.9 NW 10.7 0.0 6.7
18:56 5.9 5.8 99 1012.6 14.5 N 14.5 0.8 6.7
18:58 5.9 5.8 99 1012.6 13.6 N 14.5 1.5 6.8
18:59 5.9 5.8 99 1012.4 10.7 NW 14.5 1.5 6.8
19:01 5.9 5.8 99 1012.7 9.2 NW 14.5 1.5 6.9
19:02 5.9 5.8 99 1012.6 7.6 NW 14.5 1.5 6.9
19:03 5.9 5.8 99 1012.7 7.6 NW 14.5 0.8 6.9
19:04 5.9 5.8 99 1012.8 7.6 NW 14.5 0.8 6.9
19:05 5.9 5.8 99 1012.8 7.6 NW 14.5 0.0 6.9
19:07 5.9 5.8 99 1013.0 11.4 NW 14.5 2.3 7.1
19:08 5.9 5.8 99 1012.8 6.9 N 11.4 2.3 7.1
19:10 5.8 5.7 99 1012.7 6.0 NW 11.4 2.3 7.1
19:12 5.8 5.7 99 1012.8 9.8 NW 11.4 0.8 7.1
19:14 5.8 5.7 99 1012.8 9.2 NE 11.4 0.8 7.1
19:15 5.8 5.7 99 1012.9 6.0 N 11.4 0.8 7.1
19:17 5.8 5.7 99 1012.9 7.6 N 9.8 0.0 7.1
19:18 5.7 5.6 99 1012.8 8.3 NW 9.8 0.0 7.1
19:19 5.7 5.6 99 1012.9 8.3 NW 9.8 0.0 7.1
19:21 5.7 5.6 99 1012.9 4.5 NW 9.8 0.0 7.1
19:22 5.7 5.6 99 1012.9 6.9 NW 9.8 0.0 7.1
19:23 5.7 5.6 99 1012.9 3.8 WSW 9.2 0.0 7.1
19:24 5.7 5.6 99 1012.9 6.0 NW 8.3 0.0 7.1
19:25 5.7 5.6 99 1013.0 6.0 NW 8.3 0.0 7.1
19:27 5.7 5.6 99 1013.0 9.2 N 9.2 0.0 7.1
19:28 5.7 5.6 99 1013.1 7.6 NE 9.2 0.0 7.1
19:29 5.7 5.6 99 1013.1 8.3 N 9.2 0.0 7.1
19:30 5.7 5.6 99 1013.0 9.8 NW 9.8 0.0 7.1
19:31 5.7 5.6 99 1012.9 6.9 NW 11.4 0.0 7.1
19:32 5.7 5.6 99 1013.1 7.6 W 13.0 0.0 7.1
19:33 5.7 5.6 99 1013.2 11.4 NW 13.0 0.0 7.1
19:35 5.7 5.6 99 1013.1 9.8 NW 13.0 0.0 7.1
19:36 5.7 5.6 99 1013.0 10.7 N 13.0 0.0 7.1
19:37 5.7 5.6 99 1012.9 8.3 NW 13.0 0.0 7.1
19:38 5.7 5.6 99 1012.9 4.5 NW 13.0 0.0 7.1
19:39 5.7 5.6 99 1013.1 5.4 NW 13.0 0.0 7.1
19:40 5.6 5.5 99 1013.1 4.5 N 13.0 0.0 7.1
19:42 5.6 5.5 99 1013.3 9.2 NW 13.0 0.0 7.1
19:43 5.6 5.5 99 1013.3 9.2 NW 11.4 0.0 7.1
19:44 5.6 5.5 99 1013.4 6.9 NW 11.4 0.0 7.1
19:45 5.6 5.5 99 1013.5 8.3 N 11.4 0.0 7.1
19:46 5.6 5.5 99 1013.7 9.2 NW 11.4 0.8 7.2
19:47 5.6 5.5 99 1013.6 9.8 NE 11.4 2.3 7.3
19:48 5.5 5.4 99 1013.6 13.6 N 19.7 3.0 7.4
19:49 5.5 5.4 99 1013.5 9.8 NW 19.7 3.8 7.4
19:51 5.4 5.3 99 1013.4 8.3 NW 19.7 3.8 7.5
19:52 5.4 5.3 99 1013.6 7.6 NW 19.7 2.3 7.5
19:53 5.4 5.3 99 1013.5 7.6 N 19.7 1.5 7.5
19:54 5.4 5.3 99 1013.6 6.9 N 19.7 0.8 7.5
19:55 5.3 5.2 99 1013.6 7.6 W 19.7 0.8 7.5
19:57 5.3 5.2 99 1013.6 8.3 W 19.7 0.0 7.5
19:58 5.3 5.2 99 1013.7 9.2 NW 19.7 0.0 7.5
19:59 5.3 5.2 99 1013.6 9.2 N 9.8 0.0 7.5
20:00 5.3 5.2 99 1013.5 6.0 N 10.7 0.0 7.6
20:01 5.2 5.1 99 1013.5 13.6 N 13.6 0.8 7.6
20:02 5.2 5.1 99 1013.5 13.6 N 13.6 0.8 7.6
20:04 5.2 5.1 99 1013.4 13.6 N 13.6 0.8 7.6
20:05 5.2 5.1 99 1013.5 13.6 N 13.6 0.8 7.6
20:06 5.2 5.1 99 1013.4 13.6 N 13.6 0.0 7.6
20:07 5.2 5.1 99 1013.3 8.3 N 13.6 0.0 7.6
20:09 5.2 5.1 99 1013.4 8.3 NW 13.6 0.0 7.6
20:11 5.2 5.1 99 1013.3 6.9 N 13.6 0.0 7.6
20:12 5.2 5.1 99 1013.6 10.7 W 13.6 0.0 7.6
20:14 5.2 5.1 99 1013.6 6.9 N 13.6 0.0 7.6
20:16 5.2 5.1 99 1013.6 6.9 NW 13.6 0.0 7.6
20:17 5.2 5.1 99 1013.7 10.7 NW 10.7 0.0 7.6
20:19 5.2 5.1 99 1013.8 13.0 SE 13.0 0.0 7.6
20:20 5.3 5.2 99 1013.8 13.0 NW 14.5 0.0 7.6
20:21 5.3 5.2 99 1013.8 13.0 NW 14.5 0.0 7.6
20:22 5.3 5.2 99 1013.9 6.0 NW 14.5 0.8 7.6
20:23 5.3 5.2 99 1013.8 10.7 NW 14.5 0.8 7.6
20:24 5.3 5.2 99 1013.9 10.7 NW 14.5 0.8 7.7
20:26 5.3 5.2 99 1013.9 11.4 NW 14.5 1.5 7.7
20:27 5.3 5.2 99 1013.7 7.6 NW 14.5 0.8 7.7
20:28 5.4 5.3 99 1013.9 5.4 NW 14.5 0.8 7.7
20:29 5.4 5.3 99 1013.8 6.9 NW 14.5 0.8 7.7
20:30 5.4 5.3 99 1013.8 6.0 NW 13.6 0.0 7.7
20:31 5.3 5.2 99 1013.7 4.5 NW 13.0 0.0 7.7
20:32 5.3 5.2 99 1013.8 4.5 N 12.1 0.0 7.7
20:33 5.3 5.2 99 1013.7 3.8 N 12.1 0.0 7.7
20:34 5.3 5.2 99 1013.7 4.5 N 11.4 0.0 7.7
20:36 5.3 5.2 99 1013.8 4.5 NW 10.7 0.0 7.7
20:37 5.2 5.1 99 1013.8 5.4 NW 9.2 0.0 7.7
20:38 5.2 5.1 99 1013.8 6.0 WNW 9.2 0.0 7.7
20:39 5.2 5.1 99 1013.8 6.0 N 9.2 0.0 7.7
20:40 5.1 5.0 99 1013.9 5.4 NW 9.2 0.0 7.7
20:41 5.1 5.0 99 1014.0 3.8 NW 9.2 0.0 7.7
20:42 5.0 4.9 99 1013.8 3.1 NW 6.9 0.0 7.7
20:44 5.0 4.9 99 1013.9 6.0 NW 6.9 0.0 7.7
20:45 5.0 4.9 99 1014.0 3.8 NW 6.9 0.0 7.7
20:46 5.0 4.9 99 1013.9 3.8 NW 6.0 0.0 7.7
20:47 4.9 4.8 99 1013.9 3.8 NW 6.0 0.0 7.7
20:48 4.9 4.8 99 1013.9 6.0 NW 6.0 0.0 7.7
20:49 4.9 4.8 99 1014.0 4.5 NW 6.0 0.0 7.7
20:51 4.8 4.7 99 1014.1 3.1 NW 6.0 0.0 7.7
20:52 4.8 4.7 99 1014.1 3.1 NW 6.0 0.0 7.7
20:53 4.8 4.7 99 1014.1 6.9 NW 6.9 0.0 7.7
20:54 4.8 4.7 99 1014.2 6.0 NW 6.9 0.0 7.7
20:55 4.8 4.7 99 1014.4 6.0 N 6.9 0.0 7.7
20:56 4.7 4.6 99 1014.4 11.4 W 11.4 0.0 7.7
20:58 4.8 4.7 99 1014.6 13.0 W 13.6 0.0 7.7
20:59 4.8 4.7 99 1014.5 11.4 WNW 13.6 0.8 7.9
21:00 4.8 4.7 99 1014.6 11.4 W 13.6 3.0 7.9
21:01 4.8 4.7 99 1014.6 12.1 W 13.6 3.8 8.0
21:02 4.7 4.6 99 1014.7 11.4 W 13.6 4.5 8.1
21:03 4.7 4.6 99 1014.6 11.4 W 13.6 4.5 8.1
21:04 4.7 4.6 99 1014.8 11.4 W 13.6 3.8 8.1
21:06 4.7 4.6 99 1014.9 11.4 W 13.6 0.8 8.1
21:07 4.7 4.6 99 1014.6 4.5 N 13.6 6.8 8.6
21:08 4.7 4.6 99 1014.7 4.5 NW 13.0 7.6 8.7
21:10 4.7 4.6 99 1014.5 6.0 N 12.1 8.3 8.8
21:12 4.6 4.5 99 1014.7 4.5 N 11.4 1.5 8.8
21:13 4.6 4.5 99 1014.7 6.0 NW 11.4 0.8 8.8
21:15 4.6 4.5 99 1014.6 4.5 N 11.4 0.8 8.8
21:17 4.6 4.5 99 1014.6 3.1 N 7.6 0.8 8.8
21:18 4.6 4.5 99 1014.7 4.5 NW 7.6 1.5 8.9
21:20 4.6 4.5 99 1014.6 5.4 W 8.3 0.8 8.9
21:22 4.6 4.5 99 1014.5 3.8 W 8.3 1.5 8.9
21:23 4.6 4.5 99 1014.4 3.8 NW 8.3 0.8 8.9
21:24 4.6 4.5 99 1014.4 4.5 NW 8.3 0.8 8.9
21:25 4.6 4.5 99 1014.4 3.1 NW 8.3 0.8 8.9
21:26 4.6 4.5 99 1014.6 4.5 NW 8.3 0.0 8.9
21:27 4.6 4.5 99 1014.5 3.8 NW 8.3 0.0 8.9
21:28 4.6 4.5 99 1014.5 3.1 NW 8.3 0.0 8.9
21:29 4.6 4.5 99 1014.6 3.8 NW 5.4 0.0 8.9
21:31 4.7 4.6 99 1014.7 1.6 NW 5.4 0.0 8.9
21:32 4.6 4.5 99 1014.5 2.2 NW 5.4 0.0 8.9
21:33 4.7 4.6 99 1014.6 1.6 NW 5.4 0.0 8.9
21:34 4.6 4.5 99 1014.5 0.7 NW 5.4 0.0 8.9
21:35 4.7 4.6 99 1014.5 3.1 NW 4.5 0.0 8.9
21:36 4.7 4.6 99 1014.6 2.2 NW 4.5 0.0 8.9
21:38 4.7 4.6 99 1014.7 2.2 NW 3.8 0.0 8.9
21:39 4.7 4.6 99 1014.6 3.1 NW 3.8 0.0 8.9
21:40 4.7 4.6 99 1014.6 2.2 NW 3.1 0.0 8.9
21:41 4.7 4.6 99 1014.8 4.5 NW 4.5 0.0 8.9
21:42 4.7 4.6 99 1014.7 4.5 NW 4.5 0.0 8.9
21:43 4.6 4.5 99 1014.8 3.1 NW 4.5 0.0 8.9
21:44 4.7 4.6 99 1014.7 5.4 NW 5.4 0.0 8.9
21:45 4.7 4.6 99 1014.8 3.1 NW 5.4 0.0 8.9
21:46 4.6 4.5 99 1014.8 3.8 NW 5.4 0.0 8.9
21:48 4.7 4.6 99 1014.5 3.1 NW 5.4 0.0 8.9
21:49 4.7 4.6 99 1014.8 2.2 NW 5.4 0.0 8.9
21:50 4.7 4.6 99 1014.9 3.1 NW 5.4 0.0 8.9
21:51 4.6 4.5 99 1014.8 3.8 NW 5.4 0.0 8.9
21:52 4.7 4.6 99 1014.9 2.2 NW 5.4 0.0 8.9
21:55 4.7 4.6 99 1014.9 3.1 NW 3.8 0.0 8.9
21:57 4.7 4.6 99 1014.8 2.2 NW 3.8 0.0 8.9
21:59 4.6 4.5 99 1014.8 3.1 NW 3.8 0.8 9.0
22:01 4.7 4.6 99 1015.0 3.1 NW 3.8 0.8 9.0
22:03 4.7 4.6 99 1015.1 3.1 NW 3.8 0.0 9.0
22:05 4.7 4.6 99 1015.0 3.1 NW 3.8 0.0 9.0
22:07 4.7 4.6 99 1015.0 6.0 W 6.0 0.0 9.0
22:10 4.8 4.7 99 1015.1 9.2 W 10.7 0.0 9.0
22:12 4.8 4.7 99 1015.1 7.6 NW 10.7 0.0 9.0
22:14 4.9 4.8 99 1015.1 6.9 W 10.7 0.0 9.0
22:16 4.9 4.8 99 1015.2 5.4 W 10.7 0.0 9.0
22:17 5.0 4.9 99 1015.2 6.9 W 10.7 0.0 9.0
22:18 5.0 4.9 99 1015.3 9.2 W 10.7 0.0 9.0
22:20 5.0 4.9 99 1015.3 15.2 WNW 15.2 1.5 9.2
22:22 5.0 4.9 99 1015.2 13.0 NW 16.8 3.8 9.4
22:23 5.0 4.9 99 1015.3 7.6 NE 16.8 5.3 9.4
22:25 4.9 4.8 99 1015.3 7.6 N 16.8 3.8 9.4
22:26 4.9 4.8 99 1015.4 6.0 N 16.8 3.8 9.5
22:28 4.9 4.8 99 1015.4 9.8 NE 16.8 0.8 9.5
22:29 4.9 4.8 99 1015.4 11.4 WNW 16.8 1.5 9.6
22:30 4.9 4.8 99 1015.4 14.5 W 16.8 1.5 9.6
22:31 4.8 4.7 99 1015.4 7.6 N 16.8 0.8 9.6
22:33 4.8 4.7 99 1015.5 7.6 NE 14.5 1.5 9.6
22:34 4.7 4.6 99 1015.3 9.2 NE 14.5 0.8 9.6
22:35 4.7 4.6 99 1015.3 6.9 N 14.5 0.8 9.6
22:36 4.6 4.5 99 1015.3 8.3 N 14.5 0.8 9.6
22:38 4.6 4.5 99 1015.5 6.0 SW 14.5 0.0 9.6
22:39 4.6 4.5 99 1015.5 6.0 N 14.5 0.0 9.6
22:40 4.5 4.4 99 1015.5 3.1 N 9.2 0.0 9.6
22:42 4.5 4.4 99 1015.4 2.2 N 9.2 0.0 9.6
22:43 4.5 4.4 99 1015.4 3.1 N 9.2 0.0 9.6
22:44 4.5 4.4 99 1015.3 4.5 N 8.3 0.0 9.6
22:46 4.4 4.3 99 1015.4 1.6 N 8.3 0.0 9.6
22:47 4.4 4.3 99 1015.4 3.1 N 7.6 0.0 9.6
22:48 4.4 4.3 99 1015.3 3.1 N 6.0 0.0 9.6
22:49 4.4 4.3 99 1015.4 3.1 N 6.0 0.0 9.6
22:50 4.3 4.2 99 1015.6 2.2 N 4.5 0.0 9.6
22:51 4.3 4.2 99 1015.6 1.6 N 4.5 0.0 9.6
22:52 4.3 4.2 99 1015.6 0.7 N 4.5 0.0 9.6
22:54 4.3 4.2 99 1015.7 1.6 N 4.5 0.0 9.6
22:55 4.3 4.2 99 1015.8 0.7 N 3.1 0.0 9.6
22:56 4.2 4.1 99 1015.7 2.2 N 3.1 0.0 9.6
22:57 4.2 4.1 99 1015.7 3.1 N 3.1 0.0 9.6
22:58 4.2 4.1 99 1015.8 3.1 N 3.1 0.0 9.6
22:59 4.2 4.1 99 1015.8 2.2 N 3.1 0.0 9.6
23:00 4.2 4.1 99 1015.7 3.1 N 3.1 0.0 9.6
23:02 4.2 4.1 99 1015.9 3.1 N 3.1 0.0 9.6
23:04 4.2 4.1 99 1015.8 3.1 N 3.1 0.0 9.6
23:06 4.2 4.1 99 1015.9 3.1 N 3.1 0.0 9.6
23:07 4.1 4.0 99 1015.9 3.1 N 3.1 0.0 9.6
23:09 4.1 4.0 99 1015.6 3.1 N 3.1 0.0 9.6
23:12 4.1 4.0 99 1015.9 1.6 N 3.1 0.0 9.6
23:14 4.1 4.0 99 1016.1 3.8 N 3.8 0.0 9.6
23:17 4.1 4.0 99 1016.0 3.8 NE 4.5 0.0 9.6
23:19 4.1 4.0 99 1015.9 3.8 NE 5.4 0.0 9.6
23:21 4.1 4.0 99 1015.9 4.5 N 6.9 0.0 9.6
23:24 4.1 4.0 99 1016.0 4.5 N 6.9 0.0 9.6
23:26 4.1 4.0 99 1016.0 2.2 N 6.9 0.0 9.6
23:28 4.1 4.0 99 1016.1 3.1 N 6.9 0.0 9.6
23:30 4.1 4.0 99 1016.0 6.0 N 6.9 0.0 9.6
23:32 4.1 4.0 99 1016.1 4.5 NE 6.0 0.0 9.6
23:35 4.1 4.0 99 1016.1 4.5 NE 6.0 0.0 9.6
23:37 4.1 4.0 99 1016.4 5.4 NE 6.0 0.0 9.6
23:40 4.1 4.0 99 1016.4 4.5 NE 6.0 0.0 9.6
23:42 4.2 4.1 99 1016.4 2.2 N 5.4 0.0 9.6
23:44 4.2 4.1 99 1016.3 2.2 N 5.4 0.0 9.6
23:46 4.1 4.0 99 1016.3 3.1 N 5.4 0.0 9.6
23:49 4.2 4.1 99 1016.6 3.8 N 4.5 0.0 9.6
23:50 4.2 4.1 99 1016.5 4.5 N 4.5 0.0 9.6
23:52 4.2 4.1 99 1016.7 5.4 NE 5.4 0.0 9.6
23:54 4.2 4.1 99 1016.6 3.8 NE 5.4 0.0 9.6
23:56 4.2 4.1 99 1016.7 2.2 NW 6.0 0.0 9.6
23:58 4.2 4.1 99 1016.5 3.8 NE 6.0 0.0 9.6

UK - WEATHER STATION TOPSITES - UK World Weather Websites

This is a private weather station, never base important decisions or events on data from this weather station. Although every effort has been made to make the data as accurate as possible it does not meet MetOffice standards. It is proved as a guide of local weather conditions. We accept no liability for any loss which may arise from use of the data.

Copyright © Carnkie Weather 2009 - 2018.